| time (UTC) | temp C | wind direction | speed KPH | gust KPH | rain 1hr cm | rain 24hr cm | rain mn cm | humidity % | barometer mb |
| 20260503230754 | 21 | 307 | 11.3 | 25.7 | 0.00 | 0.00 | 0.00 | 58 | 1008.7 |
| 20260503230655 | 21 | 275 | 11.3 | 25.7 | 0.00 | 0.00 | 0.00 | 59 | 1008.7 |
| 20260503230554 | 21 | 257 | 11.3 | 25.7 | 0.00 | 0.00 | 0.00 | 59 | 1008.7 |
| 20260503230454 | 21 | 313 | 11.3 | 25.7 | 0.00 | 0.00 | 0.00 | 58 | 1008.7 |
| 20260503230354 | 21 | 296 | 11.3 | 25.7 | 0.00 | 0.00 | 0.00 | 57 | 1008.7 |
| 20260503230254 | 21 | 250 | 11.3 | 25.7 | 0.00 | 0.00 | 0.00 | 58 | 1008.7 |
| 20260503230153 | 21 | 252 | 11.3 | 25.7 | 0.00 | 0.00 | 0.00 | 57 | 1008.8 |
| 20260503230053 | 21 | 245 | 11.3 | 25.7 | 0.00 | 0.00 | 0.00 | 58 | 1008.8 |
| 20260503225953 | 21 | 272 | 11.3 | 25.7 | 0.00 | 0.00 | 0.00 | 58 | 1008.7 |
| 20260503225853 | 21 | 276 | 11.3 | 25.7 | 0.00 | 0.00 | 0.00 | 57 | 1008.8 |
| 20260503225820 | 21 | 325 | 11.3 | 25.7 | 0.00 | 0.00 | 0.00 | 58 | 1008.7 |
| 20260503225653 | 21 | 260 | 11.3 | 25.7 | 0.00 | 0.00 | 0.00 | 58 | 1008.8 |
| 20260503225552 | 21 | 330 | 11.3 | 25.7 | 0.00 | 0.00 | 0.00 | 57 | 1008.8 |
| 20260503225452 | 21 | 179 | 11.3 | 25.7 | 0.00 | 0.00 | 0.00 | 57 | 1008.9 |
| 20260503225352 | 21 | 263 | 11.3 | 25.7 | 0.00 | 0.00 | 0.00 | 57 | 1008.8 |
| 20260503225252 | 21 | 12 | 11.3 | 25.7 | 0.00 | 0.00 | 0.00 | 57 | 1008.9 |
| 20260503225152 | 21 | 254 | 9.7 | 25.7 | 0.00 | 0.00 | 0.00 | 57 | 1008.8 |
| 20260503225052 | 21 | 270 | 9.7 | 25.7 | 0.00 | 0.00 | 0.00 | 57 | 1008.9 |
| 20260503224952 | 21 | 257 | 9.7 | 24.1 | 0.00 | 0.00 | 0.00 | 56 | 1008.9 |
| 20260503224853 | 21 | 309 | 9.7 | 24.1 | 0.00 | 0.00 | 0.00 | 56 | 1008.9 |
| 20260503224753 | 21 | 299 | 9.7 | 24.1 | 0.00 | 0.00 | 0.00 | 56 | 1008.9 |
| 20260503224653 | 21 | 288 | 9.7 | 24.1 | 0.00 | 0.00 | 0.00 | 56 | 1008.9 |
| 20260503224549 | 21 | 291 | 9.7 | 22.5 | 0.00 | 0.00 | 0.00 | 57 | 1009.0 |
| 20260503224449 | 21 | 308 | 9.7 | 22.5 | 0.00 | 0.00 | 0.00 | 57 | 1009.0 |
| 20260503224348 | 21 | 325 | 9.7 | 22.5 | 0.00 | 0.00 | 0.00 | 56 | 1009.0 |
| 20260503224248 | 21 | 288 | 9.7 | 22.5 | 0.00 | 0.00 | 0.00 | 57 | 1009.0 |
| 20260503224148 | 21 | 272 | 9.7 | 22.5 | 0.00 | 0.00 | 0.00 | 56 | 1009.0 |
| 20260503224048 | 21 | 252 | 11.3 | 22.5 | 0.00 | 0.00 | 0.00 | 57 | 1009.0 |
| 20260503223948 | 21 | 302 | 9.7 | 22.5 | 0.00 | 0.00 | 0.00 | 57 | 1009.0 |
| 20260503223848 | 21 | 277 | 9.7 | 22.5 | 0.00 | 0.00 | 0.00 | 56 | 1009.0 |
| 20260503223748 | 21 | 257 | 9.7 | 22.5 | 0.00 | 0.00 | 0.00 | 56 | 1009.0 |
| 20260503223648 | 21 | 274 | 9.7 | 22.5 | 0.00 | 0.00 | 0.00 | 57 | 1009.0 |
| 20260503223549 | 21 | 303 | 9.7 | 22.5 | 0.00 | 0.00 | 0.00 | 56 | 1009.1 |
| 20260503223449 | 21 | 254 | 9.7 | 22.5 | 0.00 | 0.00 | 0.00 | 56 | 1009.1 |
| 20260503223349 | 21 | 277 | 9.7 | 22.5 | 0.00 | 0.00 | 0.00 | 56 | 1009.1 |
| 20260503223249 | 21 | 273 | 8.0 | 22.5 | 0.00 | 0.00 | 0.00 | 55 | 1009.1 |
| 20260503223149 | 21 | 319 | 8.0 | 19.3 | 0.00 | 0.00 | 0.00 | 56 | 1009.1 |
| 20260503223049 | 22 | 297 | 8.0 | 19.3 | 0.00 | 0.00 | 0.00 | 55 | 1009.1 |
| 20260503222948 | 22 | 288 | 9.7 | 19.3 | 0.00 | 0.00 | 0.00 | 55 | 1009.1 |
| 20260503222848 | 22 | 257 | 9.7 | 19.3 | 0.00 | 0.00 | 0.00 | 55 | 1009.1 |
| 20260503222749 | 22 | 252 | 9.7 | 17.7 | 0.00 | 0.00 | 0.00 | 55 | 1009.2 |
| 20260503222645 | 22 | 272 | 9.7 | 17.7 | 0.00 | 0.00 | 0.00 | 56 | 1009.2 |
| 20260503222545 | 22 | 292 | 9.7 | 17.7 | 0.00 | 0.00 | 0.00 | 56 | 1009.3 |
| 20260503222445 | 22 | 284 | 9.7 | 17.7 | 0.00 | 0.00 | 0.00 | 56 | 1009.3 |
| 20260503222345 | 22 | 284 | 9.7 | 17.7 | 0.00 | 0.00 | 0.00 | 55 | 1009.3 |
| 20260503222245 | 22 | 279 | 9.7 | 17.7 | 0.00 | 0.00 | 0.00 | 55 | 1009.3 |
| 20260503222144 | 22 | 216 | 9.7 | 17.7 | 0.00 | 0.00 | 0.00 | 54 | 1009.3 |
| 20260503222044 | 22 | 277 | 9.7 | 17.7 | 0.00 | 0.00 | 0.00 | 55 | 1009.3 |
| 20260503221944 | 22 | 322 | 9.7 | 24.1 | 0.00 | 0.00 | 0.00 | 55 | 1009.3 |
| 20260503221844 | 22 | 250 | 9.7 | 24.1 | 0.00 | 0.00 | 0.00 | 55 | 1009.3 |
| 20260503221744 | 22 | 303 | 9.7 | 24.1 | 0.00 | 0.00 | 0.00 | 55 | 1009.3 |
| 20260503221644 | 22 | 346 | 9.7 | 24.1 | 0.00 | 0.00 | 0.00 | 55 | 1009.3 |
| 20260503221544 | 22 | 269 | 9.7 | 24.1 | 0.00 | 0.00 | 0.00 | 55 | 1009.3 |
| 20260503221445 | 22 | 244 | 9.7 | 24.1 | 0.00 | 0.00 | 0.00 | 55 | 1009.3 |
| 20260503221345 | 22 | 355 | 9.7 | 24.1 | 0.00 | 0.00 | 0.00 | 55 | 1009.3 |
| 20260503221245 | 22 | 260 | 9.7 | 24.1 | 0.00 | 0.00 | 0.00 | 56 | 1009.3 |
| 20260503221145 | 22 | 233 | 9.7 | 24.1 | 0.00 | 0.00 | 0.00 | 55 | 1009.3 |
| 20260503221045 | 22 | 260 | 11.3 | 24.1 | 0.00 | 0.00 | 0.00 | 55 | 1009.3 |
| 20260503220945 | 22 | 300 | 9.7 | 24.1 | 0.00 | 0.00 | 0.00 | 55 | 1009.3 |
| 20260503220844 | 22 | 275 | 9.7 | 24.1 | 0.00 | 0.00 | 0.00 | 55 | 1009.3 |
| 20260503220740 | 22 | 330 | 9.7 | 24.1 | 0.00 | 0.00 | 0.00 | 55 | 1009.3 |
| 20260503220640 | 22 | 252 | 9.7 | 24.1 | 0.00 | 0.00 | 0.00 | 54 | 1009.4 |
| 20260503220540 | 22 | 245 | 9.7 | 24.1 | 0.00 | 0.00 | 0.00 | 54 | 1009.4 |
| 20260503220440 | 22 | 267 | 9.7 | 24.1 | 0.00 | 0.00 | 0.00 | 54 | 1009.3 |
| 20260503220341 | 22 | 280 | 9.7 | 24.1 | 0.00 | 0.00 | 0.00 | 54 | 1009.3 |
| 20260503220241 | 22 | 181 | 9.7 | 24.1 | 0.00 | 0.00 | 0.00 | 53 | 1009.3 |
| 20260503220141 | 22 | 291 | 9.7 | 24.1 | 0.00 | 0.00 | 0.00 | 53 | 1009.3 |
| 20260503220041 | 22 | 281 | 9.7 | 24.1 | 0.00 | 0.00 | 0.00 | 54 | 1009.4 |
| 20260503215941 | 22 | 250 | 9.7 | 19.3 | 0.00 | 0.00 | 0.00 | 54 | 1009.4 |
| 20260503215841 | 22 | 319 | 9.7 | 19.3 | 0.00 | 0.00 | 0.00 | 54 | 1009.4 |
| 20260503215741 | 22 | 219 | 9.7 | 19.3 | 0.00 | 0.00 | 0.00 | 52 | 1009.4 |
| 20260503215641 | 22 | 286 | 9.7 | 19.3 | 0.00 | 0.00 | 0.00 | 52 | 1009.4 |
| 20260503215541 | 22 | 267 | 9.7 | 19.3 | 0.00 | 0.00 | 0.00 | 53 | 1009.4 |
| 20260503215441 | 22 | 237 | 8.0 | 19.3 | 0.00 | 0.00 | 0.00 | 52 | 1009.4 |
| 20260503215341 | 22 | 255 | 8.0 | 19.3 | 0.00 | 0.00 | 0.00 | 52 | 1009.4 |
| 20260503215241 | 22 | 265 | 8.0 | 19.3 | 0.00 | 0.00 | 0.00 | 53 | 1009.4 |
| 20260503215141 | 22 | 267 | 9.7 | 20.9 | 0.00 | 0.00 | 0.00 | 53 | 1009.4 |
| 20260503215041 | 22 | 355 | 9.7 | 20.9 | 0.00 | 0.00 | 0.00 | 54 | 1009.4 |
| 20260503214941 | 22 | 244 | 9.7 | 20.9 | 0.00 | 0.00 | 0.00 | 54 | 1009.5 |
| 20260503214836 | 22 | 219 | 9.7 | 20.9 | 0.00 | 0.00 | 0.00 | 53 | 1009.4 |
| 20260503214736 | 22 | 38 | 9.7 | 20.9 | 0.00 | 0.00 | 0.00 | 54 | 1009.5 |
| 20260503214636 | 22 | 304 | 9.7 | 20.9 | 0.00 | 0.00 | 0.00 | 54 | 1009.5 |
| 20260503214536 | 22 | 234 | 9.7 | 20.9 | 0.00 | 0.00 | 0.00 | 54 | 1009.5 |
| 20260503214436 | 22 | 274 | 9.7 | 20.9 | 0.00 | 0.00 | 0.00 | 54 | 1009.5 |
| 20260503214337 | 22 | 257 | 9.7 | 20.9 | 0.00 | 0.00 | 0.00 | 53 | 1009.5 |
| 20260503214236 | 22 | 305 | 9.7 | 20.9 | 0.00 | 0.00 | 0.00 | 53 | 1009.5 |
| 20260503214136 | 22 | 273 | 9.7 | 20.9 | 0.00 | 0.00 | 0.00 | 52 | 1009.5 |
| 20260503214037 | 22 | 276 | 9.7 | 20.9 | 0.00 | 0.00 | 0.00 | 52 | 1009.5 |
| 20260503213936 | 22 | 237 | 9.7 | 20.9 | 0.00 | 0.00 | 0.00 | 52 | 1009.5 |
| 20260503213837 | 22 | 294 | 9.7 | 20.9 | 0.00 | 0.00 | 0.00 | 53 | 1009.5 |
| 20260503213737 | 22 | 232 | 9.7 | 20.9 | 0.00 | 0.00 | 0.00 | 52 | 1009.5 |
| 20260503213637 | 22 | 254 | 9.7 | 20.9 | 0.00 | 0.00 | 0.00 | 52 | 1009.5 |
| 20260503213537 | 22 | 248 | 9.7 | 19.3 | 0.00 | 0.00 | 0.00 | 52 | 1009.5 |
| 20260503213437 | 22 | 271 | 9.7 | 20.9 | 0.00 | 0.00 | 0.00 | 52 | 1009.5 |
| 20260503213336 | 22 | 250 | 9.7 | 20.9 | 0.00 | 0.00 | 0.00 | 52 | 1009.5 |
| 20260503213236 | 22 | 272 | 9.7 | 20.9 | 0.00 | 0.00 | 0.00 | 52 | 1009.6 |
| 20260503213137 | 22 | 245 | 9.7 | 20.9 | 0.00 | 0.00 | 0.00 | 52 | 1009.5 |
| 20260503213036 | 22 | 266 | 11.3 | 20.9 | 0.00 | 0.00 | 0.00 | 52 | 1009.6 |
| 20260503212934 | 22 | 273 | 11.3 | 20.9 | 0.00 | 0.00 | 0.00 | 51 | 1009.6 |
| 20260503212835 | 22 | 297 | 9.7 | 20.9 | 0.00 | 0.00 | 0.00 | 52 | 1009.6 |
| 20260503212735 | 22 | 282 | 9.7 | 20.9 | 0.00 | 0.00 | 0.00 | 51 | 1009.5 |
| 20260503212635 | 22 | 268 | 9.7 | 20.9 | 0.00 | 0.00 | 0.00 | 51 | 1009.6 |
| 20260503212534 | 22 | 296 | 9.7 | 20.9 | 0.00 | 0.00 | 0.00 | 51 | 1009.6 |
| 20260503212432 | 22 | 277 | 9.7 | 20.9 | 0.00 | 0.00 | 0.00 | 51 | 1009.5 |
| 20260503212333 | 23 | 277 | 9.7 | 20.9 | 0.00 | 0.00 | 0.00 | 50 | 1009.6 |
| 20260503212233 | 23 | 275 | 8.0 | 19.3 | 0.00 | 0.00 | 0.00 | 50 | 1009.6 |
| 20260503212130 | 23 | 271 | 8.0 | 19.3 | 0.00 | 0.00 | 0.00 | 49 | 1009.6 |
| 20260503212030 | 23 | 298 | 8.0 | 19.3 | 0.00 | 0.00 | 0.00 | 51 | 1009.5 |
| 20260503211929 | 23 | 217 | 8.0 | 16.1 | 0.00 | 0.00 | 0.00 | 50 | 1009.5 |
| 20260503211829 | 23 | 239 | 8.0 | 17.7 | 0.00 | 0.00 | 0.00 | 50 | 1009.5 |
| 20260503211804 | 23 | 327 | 8.0 | 17.7 | 0.00 | 0.00 | 0.00 | 51 | 1009.5 |
| 20260503211628 | 23 | 274 | 8.0 | 17.7 | 0.00 | 0.00 | 0.00 | 50 | 1009.5 |
| 20260503211528 | 23 | 288 | 8.0 | 17.7 | 0.00 | 0.00 | 0.00 | 50 | 1009.5 |
| 20260503211428 | 23 | 299 | 9.7 | 17.7 | 0.00 | 0.00 | 0.00 | 50 | 1009.6 |
| 20260503211328 | 23 | 260 | 9.7 | 19.3 | 0.00 | 0.00 | 0.00 | 49 | 1009.6 |
| 20260503211228 | 23 | 257 | 9.7 | 19.3 | 0.00 | 0.00 | 0.00 | 50 | 1009.6 |
| 20260503211128 | 23 | 248 | 9.7 | 19.3 | 0.00 | 0.00 | 0.00 | 49 | 1009.6 |
| 20260503211028 | 23 | 272 | 9.7 | 19.3 | 0.00 | 0.00 | 0.00 | 49 | 1009.6 |
| 20260503210928 | 23 | 283 | 9.7 | 19.3 | 0.00 | 0.00 | 0.00 | 49 | 1009.6 |
| 20260503210827 | 23 | 259 | 9.7 | 19.3 | 0.00 | 0.00 | 0.00 | 49 | 1009.6 |
| 20260503210726 | 23 | 249 | 9.7 | 19.3 | 0.00 | 0.00 | 0.00 | 49 | 1009.6 |
| 20260503210626 | 23 | 311 | 9.7 | 19.3 | 0.00 | 0.00 | 0.00 | 49 | 1009.7 |
| 20260503210526 | 23 | 277 | 9.7 | 19.3 | 0.00 | 0.00 | 0.00 | 48 | 1009.7 |
| 20260503210424 | 23 | 236 | 8.0 | 19.3 | 0.00 | 0.00 | 0.00 | 49 | 1009.7 |
| 20260503210322 | 23 | 265 | 9.7 | 17.7 | 0.00 | 0.00 | 0.00 | 48 | 1009.7 |
| 20260503210216 | 23 | 265 | 8.0 | 19.3 | 0.00 | 0.00 | 0.00 | 49 | 1009.7 |
| 20260503210116 | 23 | 309 | 8.0 | 19.3 | 0.00 | 0.00 | 0.00 | 47 | 1009.6 |
| 20260503210016 | 23 | 243 | 8.0 | 19.3 | 0.00 | 0.00 | 0.00 | 48 | 1009.7 |
| 20260503205916 | 23 | 262 | 8.0 | 19.3 | 0.00 | 0.00 | 0.00 | 49 | 1009.7 |
| 20260503205816 | 23 | 321 | 8.0 | 19.3 | 0.00 | 0.00 | 0.00 | 49 | 1009.7 |
| 20260503205711 | 23 | 280 | 8.0 | 19.3 | 0.00 | 0.00 | 0.00 | 48 | 1009.7 |
| 20260503205611 | 23 | 275 | 8.0 | 19.3 | 0.00 | 0.00 | 0.00 | 47 | 1009.7 |
| 20260503205511 | 23 | 284 | 8.0 | 19.3 | 0.00 | 0.00 | 0.00 | 49 | 1009.7 |
| 20260503205411 | 23 | 283 | 8.0 | 19.3 | 0.00 | 0.00 | 0.00 | 49 | 1009.7 |
| 20260503205310 | 23 | 285 | 9.7 | 19.3 | 0.00 | 0.00 | 0.00 | 49 | 1009.7 |
| 20260503205204 | 23 | 281 | 9.7 | 19.3 | 0.00 | 0.00 | 0.00 | 49 | 1009.7 |
| 20260503205104 | 23 | 285 | 9.7 | 19.3 | 0.00 | 0.00 | 0.00 | 49 | 1009.8 |
| 20260503205004 | 23 | 257 | 9.7 | 19.3 | 0.00 | 0.00 | 0.00 | 49 | 1009.8 |
| 20260503204904 | 23 | 271 | 9.7 | 19.3 | 0.00 | 0.00 | 0.00 | 48 | 1009.8 |
| 20260503204804 | 23 | 274 | 9.7 | 19.3 | 0.00 | 0.00 | 0.00 | 48 | 1009.8 |
| 20260503204726 | 23 | 279 | 8.0 | 19.3 | 0.00 | 0.00 | 0.00 | 49 | 1009.8 |
| 20260503204558 | 23 | 284 | 8.0 | 19.3 | 0.00 | 0.00 | 0.00 | 49 | 1009.8 |
| 20260503204458 | 23 | 251 | 8.0 | 19.3 | 0.00 | 0.00 | 0.00 | 49 | 1009.8 |
| 20260503204359 | 23 | 277 | 8.0 | 19.3 | 0.00 | 0.00 | 0.00 | 48 | 1009.8 |
| 20260503204258 | 23 | 263 | 6.4 | 19.3 | 0.00 | 0.00 | 0.00 | 48 | 1009.8 |
| 20260503204155 | 23 | 279 | 6.4 | 19.3 | 0.00 | 0.00 | 0.00 | 47 | 1009.8 |
| 20260503204054 | 24 | 298 | 6.4 | 19.3 | 0.00 | 0.00 | 0.00 | 47 | 1009.8 |
| 20260503203955 | 24 | 304 | 4.8 | 16.1 | 0.00 | 0.00 | 0.00 | 48 | 1009.9 |
| 20260503203855 | 24 | 263 | 6.4 | 16.1 | 0.00 | 0.00 | 0.00 | 49 | 1009.8 |
| 20260503203752 | 24 | 279 | 6.4 | 16.1 | 0.00 | 0.00 | 0.00 | 49 | 1009.9 |
| 20260503203652 | 24 | 275 | 6.4 | 16.1 | 0.00 | 0.00 | 0.00 | 49 | 1009.9 |
| 20260503203553 | 24 | 300 | 6.4 | 16.1 | 0.00 | 0.00 | 0.00 | 49 | 1009.9 |
| 20260503203452 | 24 | 279 | 4.8 | 16.1 | 0.00 | 0.00 | 0.00 | 49 | 1009.9 |
| 20260503203352 | 23 | 308 | 6.4 | 16.1 | 0.00 | 0.00 | 0.00 | 49 | 1009.9 |
| 20260503203252 | 23 | 246 | 6.4 | 16.1 | 0.00 | 0.00 | 0.00 | 49 | 1009.9 |
| 20260503203152 | 23 | 243 | 6.4 | 16.1 | 0.00 | 0.00 | 0.00 | 50 | 1009.9 |
| 20260503203052 | 23 | 292 | 6.4 | 16.1 | 0.00 | 0.00 | 0.00 | 50 | 1009.9 |
| 20260503202952 | 23 | 304 | 6.4 | 16.1 | 0.00 | 0.00 | 0.00 | 50 | 1009.9 |
| 20260503202851 | 23 | 265 | 6.4 | 17.7 | 0.00 | 0.00 | 0.00 | 50 | 1010.0 |
| 20260503202750 | 23 | 267 | 6.4 | 17.7 | 0.00 | 0.00 | 0.00 | 51 | 1010.0 |
| 20260503202648 | 23 | 252 | 6.4 | 17.7 | 0.00 | 0.00 | 0.00 | 50 | 1010.0 |
| 20260503202546 | 23 | 301 | 6.4 | 17.7 | 0.00 | 0.00 | 0.00 | 51 | 1009.9 |
| 20260503202443 | 23 | 254 | 6.4 | 17.7 | 0.00 | 0.00 | 0.00 | 50 | 1010.0 |
| 20260503202345 | 23 | 294 | 6.4 | 17.7 | 0.00 | 0.00 | 0.00 | 51 | 1010.0 |
| 20260503202245 | 23 | 212 | 6.4 | 17.7 | 0.00 | 0.00 | 0.00 | 51 | 1010.0 |
| 20260503202145 | 23 | 313 | 6.4 | 17.7 | 0.00 | 0.00 | 0.00 | 50 | 1010.0 |
| 20260503202045 | 23 | 244 | 6.4 | 17.7 | 0.00 | 0.00 | 0.00 | 50 | 1010.0 |
| 20260503201945 | 23 | 283 | 6.4 | 17.7 | 0.00 | 0.00 | 0.00 | 50 | 1010.1 |
| 20260503201843 | 23 | 298 | 6.4 | 14.5 | 0.00 | 0.00 | 0.00 | 50 | 1010.1 |
| 20260503201744 | 23 | 250 | 6.4 | 14.5 | 0.00 | 0.00 | 0.00 | 51 | 1010.1 |
| 20260503201724 | 23 | 266 | 8.0 | 17.7 | 0.00 | 0.00 | 0.00 | 51 | 1010.1 |
| 20260503201544 | 23 | 246 | 8.0 | 17.7 | 0.00 | 0.00 | 0.00 | 52 | 1010.1 |
| 20260503201443 | 23 | 248 | 6.4 | 17.7 | 0.00 | 0.00 | 0.00 | 52 | 1010.1 |
| 20260503201341 | 23 | 258 | 6.4 | 17.7 | 0.00 | 0.00 | 0.00 | 52 | 1010.1 |
| 20260503201242 | 23 | 270 | 6.4 | 17.7 | 0.00 | 0.00 | 0.00 | 52 | 1010.1 |
| 20260503201140 | 23 | 267 | 6.4 | 17.7 | 0.00 | 0.00 | 0.00 | 53 | 1010.1 |
| 20260503201038 | 23 | 281 | 6.4 | 17.7 | 0.00 | 0.00 | 0.00 | 51 | 1010.1 |
| 20260503200932 | 23 | 271 | 6.4 | 17.7 | 0.00 | 0.00 | 0.00 | 51 | 1010.2 |
| 20260503200832 | 23 | 302 | 8.0 | 17.7 | 0.00 | 0.00 | 0.00 | 51 | 1010.1 |
| 20260503200732 | 23 | 255 | 6.4 | 17.7 | 0.00 | 0.00 | 0.00 | 51 | 1010.1 |
| 20260503200632 | 23 | 246 | 6.4 | 16.1 | 0.00 | 0.00 | 0.00 | 52 | 1010.2 |
| 20260503200531 | 23 | 309 | 6.4 | 16.1 | 0.00 | 0.00 | 0.00 | 51 | 1010.2 |
| 20260503200430 | 23 | 298 | 8.0 | 16.1 | 0.00 | 0.00 | 0.00 | 52 | 1010.2 |
| 20260503200330 | 23 | 292 | 8.0 | 16.1 | 0.00 | 0.00 | 0.00 | 51 | 1010.2 |
| 20260503200230 | 23 | 288 | 8.0 | 16.1 | 0.00 | 0.00 | 0.00 | 51 | 1010.2 |
| 20260503200130 | 23 | 223 | 8.0 | 16.1 | 0.00 | 0.00 | 0.00 | 52 | 1010.3 |
| 20260503200030 | 23 | 270 | 8.0 | 16.1 | 0.00 | 0.00 | 0.00 | 52 | 1010.2 |
| 20260503195930 | 23 | 286 | 8.0 | 14.5 | 0.00 | 0.00 | 0.00 | 53 | 1010.3 |
| 20260503195830 | 23 | 277 | 8.0 | 14.5 | 0.00 | 0.00 | 0.00 | 52 | 1010.3 |
| 20260503195730 | 23 | 275 | 6.4 | 14.5 | 0.00 | 0.00 | 0.00 | 52 | 1010.3 |
| 20260503195630 | 23 | 259 | 6.4 | 14.5 | 0.00 | 0.00 | 0.00 | 50 | 1010.3 |
| 20260503195530 | 23 | 273 | 6.4 | 14.5 | 0.00 | 0.00 | 0.00 | 50 | 1010.3 |
| 20260503195430 | 23 | 273 | 6.4 | 14.5 | 0.00 | 0.00 | 0.00 | 50 | 1010.3 |
| 20260503195330 | 23 | 290 | 6.4 | 14.5 | 0.00 | 0.00 | 0.00 | 50 | 1010.3 |
| 20260503195232 | 23 | 267 | 6.4 | 14.5 | 0.00 | 0.00 | 0.00 | 50 | 1010.3 |
| 20260503195223 | 23 | 276 | 6.4 | 14.5 | 0.00 | 0.00 | 0.00 | 50 | 1010.3 |
| 20260503195030 | 23 | 262 | 6.4 | 16.1 | 0.00 | 0.00 | 0.00 | 51 | 1010.4 |
| 20260503194930 | 23 | 288 | 8.0 | 16.1 | 0.00 | 0.00 | 0.00 | 51 | 1010.4 |
| 20260503194830 | 23 | 298 | 8.0 | 16.1 | 0.00 | 0.00 | 0.00 | 51 | 1010.4 |
| 20260503194727 | 23 | 258 | 8.0 | 16.1 | 0.00 | 0.00 | 0.00 | 50 | 1010.4 |
| 20260503194624 | 23 | 259 | 8.0 | 16.1 | 0.00 | 0.00 | 0.00 | 51 | 1010.4 |
| 20260503194525 | 23 | 308 | 8.0 | 16.1 | 0.00 | 0.00 | 0.00 | 52 | 1010.4 |
| 20260503194424 | 23 | 296 | 8.0 | 16.1 | 0.00 | 0.00 | 0.00 | 52 | 1010.4 |
| 20260503194323 | 23 | 262 | 6.4 | 16.1 | 0.00 | 0.00 | 0.00 | 52 | 1010.4 |
| 20260503194218 | 23 | 270 | 6.4 | 16.1 | 0.00 | 0.00 | 0.00 | 50 | 1010.4 |
| 20260503194018 | 23 | 278 | 6.4 | 14.5 | 0.00 | 0.00 | 0.00 | 51 | 1010.4 |
| 20260503193918 | 24 | 238 | 6.4 | 12.9 | 0.00 | 0.00 | 0.00 | 50 | 1010.4 |
| 20260503193817 | 24 | 284 | 4.8 | 12.9 | 0.00 | 0.00 | 0.00 | 51 | 1010.4 |
| 20260503193713 | 24 | 242 | 4.8 | 11.3 | 0.00 | 0.00 | 0.00 | 51 | 1010.4 |
| 20260503193612 | 24 | 294 | 4.8 | 11.3 | 0.00 | 0.00 | 0.00 | 51 | 1010.3 |
| 20260503193512 | 24 | 315 | 4.8 | 11.3 | 0.00 | 0.00 | 0.00 | 52 | 1010.4 |
| 20260503193412 | 24 | 269 | 4.8 | 11.3 | 0.00 | 0.00 | 0.00 | 52 | 1010.4 |
| 20260503193311 | 24 | 261 | 6.4 | 11.3 | 0.00 | 0.00 | 0.00 | 52 | 1010.4 |
| 20260503193206 | 24 | 271 | 4.8 | 11.3 | 0.00 | 0.00 | 0.00 | 50 | 1010.4 |
| 20260503193106 | 24 | 281 | 4.8 | 11.3 | 0.00 | 0.00 | 0.00 | 52 | 1010.4 |
| 20260503193006 | 24 | 275 | 4.8 | 11.3 | 0.00 | 0.00 | 0.00 | 53 | 1010.4 |
| 20260503192906 | 24 | 234 | 4.8 | 11.3 | 0.00 | 0.00 | 0.00 | 53 | 1010.5 |
| 20260503192806 | 24 | 264 | 4.8 | 11.3 | 0.00 | 0.00 | 0.00 | 52 | 1010.5 |
| 20260503192721 | 23 | 273 | 4.8 | 11.3 | 0.00 | 0.00 | 0.00 | 52 | 1010.5 |
| 20260503192600 | 23 | 298 | 4.8 | 11.3 | 0.00 | 0.00 | 0.00 | 52 | 1010.5 |
| 20260503192500 | 23 | 259 | 4.8 | 11.3 | 0.00 | 0.00 | 0.00 | 52 | 1010.5 |
| 20260503192400 | 23 | 267 | 4.8 | 11.3 | 0.00 | 0.00 | 0.00 | 51 | 1010.5 |
| 20260503192258 | 24 | 278 | 4.8 | 11.3 | 0.00 | 0.00 | 0.00 | 51 | 1010.5 |
| 20260503192152 | 24 | 271 | 4.8 | 11.3 | 0.00 | 0.00 | 0.00 | 52 | 1010.5 |
| 20260503192052 | 24 | 292 | 6.4 | 11.3 | 0.00 | 0.00 | 0.00 | 52 | 1010.5 |
| 20260503191952 | 24 | 306 | 6.4 | 11.3 | 0.00 | 0.00 | 0.00 | 51 | 1010.5 |
| 20260503191852 | 24 | 270 | 6.4 | 11.3 | 0.00 | 0.00 | 0.00 | 51 | 1010.5 |
| 20260503191751 | 24 | 279 | 4.8 | 11.3 | 0.00 | 0.00 | 0.00 | 50 | 1010.5 |
| 20260503191647 | 24 | 275 | 4.8 | 11.3 | 0.00 | 0.00 | 0.00 | 51 | 1010.5 |
| 20260503191546 | 24 | 288 | 4.8 | 11.3 | 0.00 | 0.00 | 0.00 | 52 | 1010.5 |
| 20260503191446 | 24 | 267 | 4.8 | 11.3 | 0.00 | 0.00 | 0.00 | 51 | 1010.6 |
| 20260503191347 | 25 | 275 | 4.8 | 11.3 | 0.00 | 0.00 | 0.00 | 49 | 1010.5 |
| 20260503191245 | 25 | 288 | 4.8 | 11.3 | 0.00 | 0.00 | 0.00 | 49 | 1010.6 |
| 20260503191140 | 25 | 275 | 4.8 | 11.3 | 0.00 | 0.00 | 0.00 | 49 | 1010.6 |
| 20260503191040 | 25 | 274 | 4.8 | 11.3 | 0.00 | 0.00 | 0.00 | 48 | 1010.6 |
| 20260503190940 | 25 | 277 | 4.8 | 11.3 | 0.00 | 0.00 | 0.00 | 49 | 1010.6 |
| 20260503190840 | 25 | 281 | 3.2 | 11.3 | 0.00 | 0.00 | 0.00 | 51 | 1010.6 |
| 20260503190740 | 25 | 269 | 3.2 | 11.3 | 0.00 | 0.00 | 0.00 | 51 | 1010.6 |
| 20260503190634 | 25 | 327 | 3.2 | 11.3 | 0.00 | 0.00 | 0.00 | 51 | 1010.6 |
| 20260503190533 | 25 | 240 | 3.2 | 11.3 | 0.00 | 0.00 | 0.00 | 50 | 1010.6 |
| 20260503190434 | 25 | 277 | 3.2 | 11.3 | 0.00 | 0.00 | 0.00 | 50 | 1010.6 |
| 20260503190334 | 25 | 260 | 1.6 | 11.3 | 0.00 | 0.00 | 0.00 | 50 | 1010.6 |
| 20260503190234 | 25 | 273 | 1.6 | 6.4 | 0.00 | 0.00 | 0.00 | 50 | 1010.6 |
| 20260503190128 | 25 | 235 | 1.6 | 6.4 | 0.00 | 0.00 | 0.00 | 49 | 1010.6 |
| 20260503190028 | 25 | 246 | 1.6 | 6.4 | 0.00 | 0.00 | 0.00 | 49 | 1010.6 |
| 20260503185929 | 25 | 237 | 1.6 | 6.4 | 0.00 | 0.00 | 0.00 | 49 | 1010.6 |
| 20260503185828 | 25 | 309 | 1.6 | 6.4 | 0.00 | 0.00 | 0.00 | 50 | 1010.6 |
| 20260503185727 | 25 | 257 | 1.6 | 4.8 | 0.00 | 0.00 | 0.00 | 51 | 1010.6 |
| 20260503185522 | 25 | 257 | 1.6 | 9.7 | 0.00 | 0.00 | 0.00 | 52 | 1010.6 |
| 20260503185422 | 25 | 252 | 1.6 | 9.7 | 0.00 | 0.00 | 0.00 | 53 | 1010.6 |
| 20260503185322 | 25 | 167 | 1.6 | 9.7 | 0.00 | 0.00 | 0.00 | 54 | 1010.7 |
| 20260503185222 | 25 | 167 | 3.2 | 9.7 | 0.00 | 0.00 | 0.00 | 54 | 1010.7 |
| 20260503185116 | 25 | 128 | 3.2 | 9.7 | 0.00 | 0.00 | 0.00 | 54 | 1010.7 |
| 20260503185016 | 25 | 126 | 3.2 | 9.7 | 0.00 | 0.00 | 0.00 | 56 | 1010.6 |
| 20260503184916 | 25 | 121 | 3.2 | 9.7 | 0.00 | 0.00 | 0.00 | 56 | 1010.6 |
| 20260503184816 | 25 | 144 | 3.2 | 9.7 | 0.00 | 0.00 | 0.00 | 55 | 1010.7 |
| 20260503184716 | 25 | 108 | 3.2 | 9.7 | 0.00 | 0.00 | 0.00 | 56 | 1010.7 |
| 20260503184611 | 25 | 136 | 4.8 | 9.7 | 0.00 | 0.00 | 0.00 | 55 | 1010.7 |
| 20260503184511 | 25 | 138 | 4.8 | 9.7 | 0.00 | 0.00 | 0.00 | 55 | 1010.7 |
| 20260503184409 | 25 | 101 | 4.8 | 9.7 | 0.00 | 0.00 | 0.00 | 54 | 1010.7 |
| 20260503184310 | 25 | 94 | 4.8 | 9.7 | 0.00 | 0.00 | 0.00 | 54 | 1010.7 |
| 20260503184210 | 25 | 99 | 3.2 | 9.7 | 0.00 | 0.00 | 0.00 | 54 | 1010.7 |
| 20260503184104 | 25 | 104 | 4.8 | 9.7 | 0.00 | 0.00 | 0.00 | 55 | 1010.7 |
| 20260503184004 | 25 | 107 | 4.8 | 9.7 | 0.00 | 0.00 | 0.00 | 54 | 1010.8 |
| 20260503183904 | 25 | 87 | 4.8 | 9.7 | 0.00 | 0.00 | 0.00 | 55 | 1010.8 |
| 20260503183804 | 25 | 106 | 4.8 | 9.7 | 0.00 | 0.00 | 0.00 | 53 | 1010.8 |
| 20260503183707 | 25 | 48 | 4.8 | 9.7 | 0.00 | 0.00 | 0.00 | 54 | 1010.7 |
| 20260503183626 | 25 | 59 | 3.2 | 9.7 | 0.00 | 0.00 | 0.00 | 56 | 1010.8 |
| 20260503183458 | 25 | 120 | 4.8 | 8.0 | 0.00 | 0.00 | 0.00 | 56 | 1010.8 |
| 20260503183358 | 25 | 88 | 4.8 | 11.3 | 0.00 | 0.00 | 0.00 | 57 | 1010.8 |
| 20260503183258 | 25 | 130 | 4.8 | 11.3 | 0.00 | 0.00 | 0.00 | 56 | 1010.8 |
| 20260503183157 | 25 | 106 | 4.8 | 11.3 | 0.00 | 0.00 | 0.00 | 55 | 1010.8 |
| 20260503183120 | 25 | 115 | 4.8 | 11.3 | 0.00 | 0.00 | 0.00 | 55 | 1010.8 |
| 20260503182952 | 25 | 106 | 4.8 | 12.9 | 0.00 | 0.00 | 0.00 | 55 | 1010.8 |
| 20260503182852 | 25 | 110 | 4.8 | 12.9 | 0.00 | 0.00 | 0.00 | 52 | 1010.8 |
| 20260503182751 | 25 | 51 | 4.8 | 12.9 | 0.00 | 0.00 | 0.00 | 51 | 1010.8 |
| 20260503182652 | 25 | 46 | 4.8 | 12.9 | 0.00 | 0.00 | 0.00 | 54 | 1010.8 |
| 20260503182546 | 25 | 110 | 4.8 | 12.9 | 0.00 | 0.00 | 0.00 | 54 | 1010.8 |
| 20260503182446 | 24 | 112 | 4.8 | 12.9 | 0.00 | 0.00 | 0.00 | 57 | 1010.8 |
| 20260503182346 | 24 | 98 | 4.8 | 12.9 | 0.00 | 0.00 | 0.00 | 55 | 1010.9 |
| 20260503182246 | 24 | 91 | 4.8 | 12.9 | 0.00 | 0.00 | 0.00 | 54 | 1010.9 |
| 20260503182146 | 24 | 121 | 4.8 | 12.9 | 0.00 | 0.00 | 0.00 | 53 | 1010.9 |
| 20260503182040 | 24 | 95 | 4.8 | 12.9 | 0.00 | 0.00 | 0.00 | 52 | 1010.9 |
| 20260503181940 | 24 | 109 | 4.8 | 11.3 | 0.00 | 0.00 | 0.00 | 54 | 1010.9 |
| 20260503181840 | 24 | 140 | 4.8 | 11.3 | 0.00 | 0.00 | 0.00 | 55 | 1010.9 |
| 20260503181740 | 24 | 134 | 4.8 | 11.3 | 0.00 | 0.00 | 0.00 | 55 | 1010.9 |
| 20260503181640 | 24 | 106 | 4.8 | 11.3 | 0.00 | 0.00 | 0.00 | 54 | 1010.9 |
| 20260503181534 | 24 | 139 | 4.8 | 11.3 | 0.00 | 0.00 | 0.00 | 54 | 1010.9 |
| 20260503181434 | 24 | 90 | 4.8 | 11.3 | 0.00 | 0.00 | 0.00 | 53 | 1010.9 |
| 20260503181335 | 24 | 98 | 4.8 | 11.3 | 0.00 | 0.00 | 0.00 | 53 | 1010.9 |
| 20260503181234 | 24 | 94 | 4.8 | 12.9 | 0.00 | 0.00 | 0.00 | 56 | 1010.9 |
| 20260503181134 | 24 | 100 | 4.8 | 12.9 | 0.00 | 0.00 | 0.00 | 55 | 1010.9 |
| 20260503181056 | 24 | 77 | 4.8 | 12.9 | 0.00 | 0.00 | 0.00 | 56 | 1010.9 |
| 20260503180932 | 24 | 49 | 4.8 | 12.9 | 0.00 | 0.00 | 0.00 | 56 | 1010.9 |
| 20260503180832 | 24 | 70 | 6.4 | 12.9 | 0.00 | 0.00 | 0.00 | 56 | 1011.0 |
| 20260503180730 | 24 | 109 | 6.4 | 12.9 | 0.00 | 0.00 | 0.00 | 54 | 1011.0 |
| 20260503180628 | 24 | 109 | 6.4 | 12.9 | 0.00 | 0.00 | 0.00 | 54 | 1011.0 |
| 20260503180549 | 24 | 121 | 4.8 | 12.9 | 0.00 | 0.00 | 0.00 | 53 | 1011.0 |
| 20260503180421 | 24 | 33 | 4.8 | 12.9 | 0.00 | 0.00 | 0.00 | 54 | 1011.0 |
| 20260503180321 | 24 | 95 | 4.8 | 12.9 | 0.00 | 0.00 | 0.00 | 52 | 1011.0 |
| 20260503180222 | 24 | 82 | 4.8 | 12.9 | 0.00 | 0.00 | 0.00 | 52 | 1011.0 |
| 20260503180122 | 24 | 120 | 4.8 | 12.9 | 0.00 | 0.00 | 0.00 | 53 | 1011.0 |
| 20260503180016 | 24 | 110 | 4.8 | 12.9 | 0.00 | 0.00 | 0.00 | 53 | 1011.0 |
| 20260503175916 | 24 | 99 | 4.8 | 11.3 | 0.00 | 0.00 | 0.00 | 56 | 1011.0 |
| 20260503175816 | 24 | 107 | 4.8 | 11.3 | 0.00 | 0.00 | 0.00 | 57 | 1011.0 |
| 20260503175716 | 24 | 126 | 4.8 | 11.3 | 0.00 | 0.00 | 0.00 | 57 | 1011.1 |
| 20260503175616 | 24 | 72 | 4.8 | 11.3 | 0.00 | 0.00 | 0.00 | 57 | 1011.0 |
| 20260503175509 | 24 | 70 | 4.8 | 11.3 | 0.00 | 0.00 | 0.00 | 57 | 1011.0 |
| 20260503175410 | 24 | 42 | 4.8 | 11.3 | 0.00 | 0.00 | 0.00 | 59 | 1011.1 |
| 20260503175309 | 24 | 86 | 4.8 | 11.3 | 0.00 | 0.00 | 0.00 | 58 | 1011.0 |
| 20260503175211 | 24 | 81 | 3.2 | 11.3 | 0.00 | 0.00 | 0.00 | 58 | 1011.0 |
| 20260503175109 | 24 | 38 | 4.8 | 11.3 | 0.00 | 0.00 | 0.00 | 58 | 1011.0 |
| 20260503175004 | 24 | 78 | 4.8 | 11.3 | 0.00 | 0.00 | 0.00 | 57 | 1011.1 |
| 20260503174804 | 23 | 104 | 4.8 | 12.9 | 0.00 | 0.00 | 0.00 | 58 | 1011.1 |
| 20260503174705 | 23 | 66 | 6.4 | 12.9 | 0.00 | 0.00 | 0.00 | 58 | 1011.1 |
| 20260503174603 | 23 | 86 | 6.4 | 14.5 | 0.00 | 0.00 | 0.00 | 60 | 1011.1 |
| 20260503174526 | 23 | 119 | 6.4 | 14.5 | 0.00 | 0.00 | 0.00 | 60 | 1011.1 |
| 20260503174359 | 23 | 80 | 6.4 | 14.5 | 0.00 | 0.00 | 0.00 | 60 | 1011.1 |
| 20260503174258 | 23 | 44 | 6.4 | 14.5 | 0.00 | 0.00 | 0.00 | 59 | 1011.1 |
| 20260503174158 | 23 | 28 | 6.4 | 14.5 | 0.00 | 0.00 | 0.00 | 58 | 1011.1 |
| 20260503174058 | 23 | 61 | 6.4 | 14.5 | 0.00 | 0.00 | 0.00 | 57 | 1011.1 |
| 20260503173953 | 23 | 80 | 6.4 | 14.5 | 0.00 | 0.00 | 0.00 | 57 | 1011.1 |
| 20260503173852 | 23 | 84 | 6.4 | 14.5 | 0.00 | 0.00 | 0.00 | 56 | 1011.1 |
| 20260503173752 | 23 | 82 | 4.8 | 14.5 | 0.00 | 0.00 | 0.00 | 56 | 1011.1 |
| 20260503173652 | 23 | 88 | 4.8 | 14.5 | 0.00 | 0.00 | 0.00 | 58 | 1011.1 |
| 20260503173552 | 23 | 61 | 4.8 | 16.1 | 0.00 | 0.00 | 0.00 | 61 | 1011.1 |
| 20260503173449 | 23 | 85 | 6.4 | 16.1 | 0.00 | 0.00 | 0.00 | 61 | 1011.1 |
| 20260503173346 | 23 | 101 | 4.8 | 16.1 | 0.00 | 0.00 | 0.00 | 60 | 1011.1 |
| 20260503173246 | 23 | 60 | 6.4 | 16.1 | 0.00 | 0.00 | 0.00 | 59 | 1011.1 |
| 20260503173146 | 23 | 101 | 6.4 | 16.1 | 0.00 | 0.00 | 0.00 | 59 | 1011.1 |
| 20260503173045 | 23 | 121 | 6.4 | 16.1 | 0.00 | 0.00 | 0.00 | 61 | 1011.1 |
| 20260503173007 | 23 | 142 | 6.4 | 16.1 | 0.00 | 0.00 | 0.00 | 62 | 1011.1 |
| 20260503172840 | 23 | 86 | 6.4 | 16.1 | 0.00 | 0.00 | 0.00 | 61 | 1011.2 |
| 20260503172739 | 23 | 94 | 6.4 | 16.1 | 0.00 | 0.00 | 0.00 | 60 | 1011.1 |
| 20260503172640 | 22 | 70 | 6.4 | 16.1 | 0.00 | 0.00 | 0.00 | 60 | 1011.2 |
| 20260503172540 | 22 | 105 | 6.4 | 12.9 | 0.00 | 0.00 | 0.00 | 62 | 1011.2 |
| 20260503172434 | 22 | 85 | 6.4 | 12.9 | 0.00 | 0.00 | 0.00 | 61 | 1011.2 |
| 20260503172334 | 22 | 87 | 6.4 | 12.9 | 0.00 | 0.00 | 0.00 | 61 | 1011.2 |
| 20260503172234 | 22 | 63 | 6.4 | 12.9 | 0.00 | 0.00 | 0.00 | 60 | 1011.2 |
| 20260503172134 | 22 | 84 | 6.4 | 12.9 | 0.00 | 0.00 | 0.00 | 60 | 1011.2 |
| 20260503172033 | 22 | 116 | 6.4 | 12.9 | 0.00 | 0.00 | 0.00 | 61 | 1011.2 |
| 20260503171932 | 22 | 65 | 6.4 | 12.9 | 0.00 | 0.00 | 0.00 | 62 | 1011.2 |
| 20260503171831 | 22 | 73 | 6.4 | 12.9 | 0.00 | 0.00 | 0.00 | 61 | 1011.2 |
| 20260503171732 | 22 | 66 | 6.4 | 12.9 | 0.00 | 0.00 | 0.00 | 61 | 1011.2 |
| 20260503171629 | 22 | 126 | 6.4 | 14.5 | 0.00 | 0.00 | 0.00 | 62 | 1011.2 |
| 20260503171527 | 22 | 71 | 6.4 | 14.5 | 0.00 | 0.00 | 0.00 | 61 | 1011.2 |
| 20260503171422 | 22 | 130 | 6.4 | 14.5 | 0.00 | 0.00 | 0.00 | 61 | 1011.2 |
| 20260503171322 | 22 | 76 | 6.4 | 14.5 | 0.00 | 0.00 | 0.00 | 63 | 1011.2 |
| 20260503171222 | 22 | 109 | 6.4 | 14.5 | 0.00 | 0.00 | 0.00 | 64 | 1011.2 |
| 20260503171122 | 22 | 82 | 6.4 | 14.5 | 0.00 | 0.00 | 0.00 | 63 | 1011.2 |
| 20260503171022 | 22 | 62 | 6.4 | 14.5 | 0.00 | 0.00 | 0.00 | 63 | 1011.2 |
| 20260503170916 | 22 | 74 | 6.4 | 14.5 | 0.00 | 0.00 | 0.00 | 63 | 1011.2 |
| 20260503170815 | 22 | 90 | 6.4 | 14.5 | 0.00 | 0.00 | 0.00 | 63 | 1011.2 |
| 20260503170716 | 22 | 84 | 6.4 | 14.5 | 0.00 | 0.00 | 0.00 | 63 | 1011.1 |
| 20260503170615 | 22 | 84 | 6.4 | 14.5 | 0.00 | 0.00 | 0.00 | 64 | 1011.2 |
| 20260503170516 | 22 | 34 | 6.4 | 14.5 | 0.00 | 0.00 | 0.00 | 65 | 1011.2 |
| 20260503170410 | 21 | 124 | 6.4 | 14.5 | 0.00 | 0.00 | 0.00 | 65 | 1011.2 |
| 20260503170310 | 21 | 74 | 6.4 | 12.9 | 0.00 | 0.00 | 0.00 | 65 | 1011.1 |
| 20260503170210 | 21 | 60 | 6.4 | 12.9 | 0.00 | 0.00 | 0.00 | 66 | 1011.1 |
| 20260503170110 | 21 | 122 | 6.4 | 12.9 | 0.00 | 0.00 | 0.00 | 66 | 1011.1 |
| 20260503160158 | 19 | 71 | 6.4 | 14.5 | 0.00 | 0.00 | 0.00 | 68 | 1011.5 |
| 20260503151014 | 15 | 82 | 3.2 | 9.7 | 0.00 | 0.00 | 0.00 | 89 | 1011.6 |
| 20260503150912 | 15 | 71 | 3.2 | 9.7 | 0.00 | 0.00 | 0.00 | 89 | 1011.6 |
| 20260503150812 | 15 | 55 | 3.2 | 9.7 | 0.00 | 0.00 | 0.00 | 90 | 1011.6 |
| 20260503150712 | 14 | 61 | 3.2 | 9.7 | 0.00 | 0.00 | 0.00 | 90 | 1011.6 |
| 20260503150611 | 14 | 59 | 3.2 | 9.7 | 0.00 | 0.00 | 0.00 | 90 | 1011.6 |
| 20260503150505 | 14 | 40 | 3.2 | 9.7 | 0.00 | 0.00 | 0.00 | 90 | 1011.7 |
| 20260503150405 | 14 | 78 | 3.2 | 9.7 | 0.00 | 0.00 | 0.00 | 90 | 1011.7 |
| 20260503150305 | 13 | 69 | 3.2 | 9.7 | 0.00 | 0.00 | 0.00 | 90 | 1011.6 |
| 20260503150244 | 13 | 85 | 3.2 | 9.7 | 0.00 | 0.00 | 0.00 | 90 | 1011.7 |
| 20260503150105 | 13 | 78 | 3.2 | 4.8 | 0.00 | 0.00 | 0.00 | 90 | 1011.7 |
| 20260503140238 | 11 | 5 | 1.6 | 4.8 | 0.00 | 0.00 | 0.00 | 91 | 1011.3 |
| 20260503131325 | 11 | 67 | 1.6 | 4.8 | 0.00 | 0.00 | 0.00 | 91 | 1011.2 |
| 20260503131225 | 11 | 67 | 1.6 | 4.8 | 0.00 | 0.00 | 0.00 | 91 | 1011.3 |
| 20260503131125 | 11 | 67 | 1.6 | 4.8 | 0.00 | 0.00 | 0.00 | 91 | 1011.2 |
| 20260503131025 | 11 | 67 | 3.2 | 4.8 | 0.00 | 0.00 | 0.00 | 91 | 1011.2 |
| 20260503130925 | 11 | 67 | 3.2 | 4.8 | 0.00 | 0.00 | 0.00 | 91 | 1011.2 |
| 20260503130825 | 11 | 67 | 3.2 | 4.8 | 0.00 | 0.00 | 0.00 | 91 | 1011.2 |
| 20260503130740 | 11 | 67 | 3.2 | 4.8 | 0.00 | 0.00 | 0.00 | 91 | 1011.2 |
| 20260503130625 | 11 | 67 | 3.2 | 4.8 | 0.00 | 0.00 | 0.00 | 91 | 1011.2 |
| 20260503130526 | 11 | 67 | 3.2 | 4.8 | 0.00 | 0.00 | 0.00 | 91 | 1011.2 |
| 20260503130423 | 11 | 67 | 3.2 | 4.8 | 0.00 | 0.00 | 0.00 | 91 | 1011.3 |
| 20260503130321 | 11 | 67 | 3.2 | 4.8 | 0.00 | 0.00 | 0.00 | 91 | 1011.3 |
| 20260503130221 | 11 | 72 | 3.2 | 4.8 | 0.00 | 0.00 | 0.00 | 91 | 1011.3 |
| 20260503130119 | 11 | 72 | 3.2 | 4.8 | 0.00 | 0.00 | 0.00 | 91 | 1011.3 |
| 20260503120203 | 11 | 67 | 3.2 | 4.8 | 0.00 | 0.00 | 0.00 | 91 | 1011.5 |
| 20260503120104 | 11 | 67 | 3.2 | 4.8 | 0.00 | 0.00 | 0.00 | 91 | 1011.6 |
| 20260503110803 | 11 | 75 | 1.6 | 4.8 | 0.00 | 0.00 | 0.00 | 91 | 1011.6 |
| 20260503110701 | 11 | 75 | 1.6 | 4.8 | 0.00 | 0.00 | 0.00 | 91 | 1011.6 |
| 20260503110601 | 11 | 75 | 1.6 | 4.8 | 0.00 | 0.00 | 0.00 | 91 | 1011.7 |
| 20260503110542 | 11 | 75 | 1.6 | 4.8 | 0.00 | 0.00 | 0.00 | 91 | 1011.7 |
| 20260503110359 | 11 | 75 | 1.6 | 4.8 | 0.00 | 0.00 | 0.00 | 91 | 1011.7 |
| 20260503110256 | 11 | 75 | 1.6 | 4.8 | 0.00 | 0.00 | 0.00 | 91 | 1011.7 |
| 20260503110151 | 11 | 75 | 1.6 | 4.8 | 0.00 | 0.00 | 0.00 | 91 | 1011.7 |
| 20260503100247 | 11 | 75 | 0.0 | 0.0 | 0.00 | 0.00 | 0.00 | 90 | 1011.8 |
| 20260503100145 | 11 | 75 | 0.0 | 0.0 | 0.00 | 0.00 | 0.00 | 90 | 1011.8 |
| 20260503090439 | 11 | 73 | 4.8 | 6.4 | 0.00 | 0.00 | 0.00 | 90 | 1012.0 |
| 20260503090337 | 11 | 73 | 4.8 | 6.4 | 0.00 | 0.00 | 0.00 | 90 | 1012.0 |
| 20260503090237 | 11 | 73 | 4.8 | 6.4 | 0.00 | 0.00 | 0.00 | 90 | 1012.0 |
| 20260503090135 | 11 | 74 | 4.8 | 6.4 | 0.00 | 0.00 | 0.00 | 90 | 1012.0 |
| 20260503081541 | 11 | 109 | 1.6 | 4.8 | 0.00 | 0.00 | 0.00 | 90 | 1012.2 |
| 20260503081439 | 11 | 109 | 1.6 | 3.2 | 0.00 | 0.00 | 0.00 | 90 | 1012.2 |
| 20260503081339 | 11 | 109 | 1.6 | 4.8 | 0.00 | 0.00 | 0.00 | 90 | 1012.2 |
| 20260503081237 | 11 | 109 | 1.6 | 4.8 | 0.00 | 0.00 | 0.00 | 90 | 1012.2 |
| 20260503081137 | 11 | 109 | 1.6 | 4.8 | 0.00 | 0.00 | 0.00 | 90 | 1012.2 |
| 20260503081035 | 11 | 88 | 1.6 | 4.8 | 0.00 | 0.00 | 0.00 | 90 | 1012.1 |
| 20260503080932 | 11 | 112 | 1.6 | 4.8 | 0.00 | 0.00 | 0.00 | 90 | 1012.2 |
| 20260503080832 | 11 | 112 | 1.6 | 4.8 | 0.00 | 0.00 | 0.00 | 90 | 1012.1 |
| 20260503080731 | 11 | 112 | 1.6 | 4.8 | 0.00 | 0.00 | 0.00 | 90 | 1012.1 |
| 20260503080631 | 11 | 112 | 1.6 | 4.8 | 0.00 | 0.00 | 0.00 | 90 | 1012.1 |
| 20260503080529 | 11 | 112 | 1.6 | 4.8 | 0.00 | 0.00 | 0.00 | 90 | 1012.1 |
| 20260503080426 | 11 | 112 | 1.6 | 4.8 | 0.00 | 0.00 | 0.00 | 90 | 1012.1 |
| 20260503080325 | 11 | 92 | 1.6 | 4.8 | 0.00 | 0.00 | 0.00 | 90 | 1012.1 |
| 20260503080225 | 11 | 92 | 0.0 | 4.8 | 0.00 | 0.00 | 0.00 | 90 | 1012.1 |
| 20260503080125 | 11 | 92 | 0.0 | 4.8 | 0.00 | 0.00 | 0.00 | 90 | 1012.1 |
| 20260503072844 | 11 | 86 | 1.6 | 4.8 | 0.00 | 0.00 | 0.00 | 90 | 1012.2 |
| 20260503072744 | 11 | 90 | 1.6 | 4.8 | 0.00 | 0.00 | 0.00 | 90 | 1012.1 |
| 20260503072643 | 11 | 113 | 1.6 | 4.8 | 0.00 | 0.00 | 0.00 | 90 | 1012.2 |
| 20260503072541 | 11 | 85 | 1.6 | 4.8 | 0.00 | 0.00 | 0.00 | 90 | 1012.2 |
| 20260503072441 | 11 | 105 | 1.6 | 4.8 | 0.00 | 0.00 | 0.00 | 90 | 1012.1 |
| 20260503072339 | 11 | 105 | 1.6 | 4.8 | 0.00 | 0.00 | 0.00 | 90 | 1012.1 |
| 20260503072237 | 11 | 96 | 1.6 | 4.8 | 0.00 | 0.00 | 0.00 | 90 | 1012.1 |
| 20260503072136 | 11 | 96 | 1.6 | 4.8 | 0.00 | 0.00 | 0.00 | 90 | 1012.1 |
| 20260503072036 | 11 | 96 | 1.6 | 4.8 | 0.00 | 0.00 | 0.00 | 90 | 1012.1 |
| 20260503071934 | 11 | 102 | 1.6 | 4.8 | 0.00 | 0.00 | 0.00 | 90 | 1012.1 |
| 20260503071832 | 11 | 110 | 1.6 | 4.8 | 0.00 | 0.00 | 0.00 | 90 | 1012.1 |
| 20260503071730 | 11 | 110 | 1.6 | 4.8 | 0.00 | 0.00 | 0.00 | 90 | 1012.2 |
| 20260503071631 | 11 | 110 | 3.2 | 4.8 | 0.00 | 0.00 | 0.00 | 90 | 1012.2 |
| 20260503071531 | 11 | 110 | 3.2 | 4.8 | 0.00 | 0.00 | 0.00 | 90 | 1012.1 |
| 20260503071429 | 11 | 114 | 3.2 | 4.8 | 0.00 | 0.00 | 0.00 | 90 | 1012.2 |
| 20260503071327 | 11 | 85 | 3.2 | 4.8 | 0.00 | 0.00 | 0.00 | 90 | 1012.2 |
| 20260503071227 | 11 | 85 | 1.6 | 4.8 | 0.00 | 0.00 | 0.00 | 90 | 1012.2 |
| 20260503071124 | 11 | 85 | 1.6 | 4.8 | 0.00 | 0.00 | 0.00 | 90 | 1012.1 |
| 20260503071022 | 11 | 77 | 1.6 | 4.8 | 0.00 | 0.00 | 0.00 | 90 | 1012.2 |
| 20260503070922 | 11 | 75 | 1.6 | 4.8 | 0.00 | 0.00 | 0.00 | 90 | 1012.2 |
| 20260503070820 | 11 | 89 | 1.6 | 4.8 | 0.00 | 0.00 | 0.00 | 90 | 1012.1 |
| 20260503070715 | 11 | 107 | 1.6 | 4.8 | 0.00 | 0.00 | 0.00 | 90 | 1012.2 |
| 20260503070615 | 11 | 104 | 1.6 | 4.8 | 0.00 | 0.00 | 0.00 | 90 | 1012.1 |
| 20260503070515 | 11 | 101 | 1.6 | 4.8 | 0.00 | 0.00 | 0.00 | 90 | 1012.1 |
| 20260503070415 | 11 | 106 | 0.0 | 4.8 | 0.00 | 0.00 | 0.00 | 90 | 1012.2 |
| 20260503070315 | 11 | 110 | 0.0 | 4.8 | 0.00 | 0.00 | 0.00 | 90 | 1012.1 |
| 20260503070215 | 10 | 110 | 0.0 | 4.8 | 0.00 | 0.00 | 0.00 | 90 | 1012.2 |
| 20260503070112 | 10 | 110 | 0.0 | 4.8 | 0.00 | 0.00 | 0.00 | 90 | 1012.1 |
| 20260503060306 | 10 | 15 | 0.0 | 0.0 | 0.00 | 0.00 | 0.00 | 90 | 1012.3 |
| 20260503060204 | 10 | 15 | 0.0 | 0.0 | 0.00 | 0.00 | 0.00 | 90 | 1012.3 |
| 20260503060104 | 10 | 15 | 0.0 | 0.0 | 0.00 | 0.00 | 0.00 | 90 | 1012.3 |
| 20260503055051 | 10 | 15 | 0.0 | 3.2 | 0.00 | 0.00 | 0.00 | 90 | 1012.4 |
| 20260503054949 | 10 | 15 | 0.0 | 3.2 | 0.00 | 0.00 | 0.00 | 90 | 1012.4 |
| 20260503054849 | 10 | 15 | 0.0 | 3.2 | 0.00 | 0.00 | 0.00 | 90 | 1012.4 |
| 20260503054748 | 10 | 15 | 0.0 | 3.2 | 0.00 | 0.00 | 0.00 | 90 | 1012.4 |
| 20260503054645 | 10 | 15 | 0.0 | 1.6 | 0.00 | 0.00 | 0.00 | 90 | 1012.4 |
| 20260503054546 | 10 | 15 | 0.0 | 0.0 | 0.00 | 0.00 | 0.00 | 90 | 1012.4 |
| 20260503054444 | 10 | 15 | 0.0 | 0.0 | 0.00 | 0.00 | 0.00 | 90 | 1012.4 |
| 20260503054426 | 10 | 15 | 0.0 | 0.0 | 0.00 | 0.00 | 0.00 | 90 | 1012.4 |
| 20260503054140 | 10 | 15 | 0.0 | 0.0 | 0.00 | 0.00 | 0.00 | 90 | 1012.4 |
| 20260503053938 | 10 | 15 | 0.0 | 0.0 | 0.00 | 0.00 | 0.00 | 90 | 1012.4 |
| 20260503053837 | 10 | 15 | 0.0 | 0.0 | 0.00 | 0.00 | 0.00 | 90 | 1012.4 |
| 20260503053735 | 10 | 15 | 0.0 | 0.0 | 0.00 | 0.00 | 0.00 | 90 | 1012.3 |
| 20260503053634 | 10 | 15 | 0.0 | 0.0 | 0.00 | 0.00 | 0.00 | 90 | 1012.3 |
| 20260503053530 | 10 | 15 | 0.0 | 0.0 | 0.00 | 0.00 | 0.00 | 90 | 1012.3 |
| 20260503053430 | 10 | 15 | 0.0 | 0.0 | 0.00 | 0.00 | 0.00 | 90 | 1012.4 |
| 20260503053330 | 10 | 15 | 0.0 | 3.2 | 0.00 | 0.00 | 0.00 | 90 | 1012.3 |
| 20260503053230 | 10 | 15 | 0.0 | 3.2 | 0.00 | 0.00 | 0.00 | 90 | 1012.3 |
| 20260503053128 | 10 | 15 | 0.0 | 4.8 | 0.00 | 0.00 | 0.00 | 90 | 1012.4 |
| 20260503053027 | 10 | 15 | 0.0 | 4.8 | 0.00 | 0.00 | 0.00 | 90 | 1012.4 |
| 20260503052927 | 10 | 15 | 0.0 | 4.8 | 0.00 | 0.00 | 0.00 | 90 | 1012.4 |
| 20260503052826 | 10 | 15 | 1.6 | 4.8 | 0.00 | 0.00 | 0.00 | 90 | 1012.4 |
| 20260503052723 | 10 | 15 | 1.6 | 4.8 | 0.00 | 0.00 | 0.00 | 90 | 1012.4 |
| 20260503052621 | 10 | 15 | 1.6 | 4.8 | 0.00 | 0.00 | 0.00 | 90 | 1012.3 |
| 20260503052522 | 10 | 15 | 1.6 | 4.8 | 0.00 | 0.00 | 0.00 | 90 | 1012.3 |
| 20260503052420 | 10 | 15 | 1.6 | 4.8 | 0.00 | 0.00 | 0.00 | 90 | 1012.4 |
| 20260503052320 | 10 | 348 | 1.6 | 4.8 | 0.00 | 0.00 | 0.00 | 89 | 1012.4 |
| 20260503052218 | 10 | 348 | 1.6 | 4.8 | 0.00 | 0.00 | 0.00 | 89 | 1012.4 |
| 20260503052116 | 10 | 348 | 1.6 | 4.8 | 0.00 | 0.00 | 0.00 | 89 | 1012.4 |
| 20260503052012 | 10 | 348 | 1.6 | 4.8 | 0.00 | 0.00 | 0.00 | 89 | 1012.4 |
| 20260503051911 | 10 | 348 | 1.6 | 4.8 | 0.00 | 0.00 | 0.00 | 89 | 1012.4 |
| 20260503051812 | 10 | 348 | 1.6 | 4.8 | 0.00 | 0.00 | 0.00 | 89 | 1012.3 |
| 20260503051711 | 10 | 348 | 1.6 | 4.8 | 0.00 | 0.00 | 0.00 | 89 | 1012.4 |
| 20260503051609 | 10 | 348 | 1.6 | 4.8 | 0.00 | 0.00 | 0.00 | 89 | 1012.3 |
| 20260503051506 | 10 | 348 | 1.6 | 4.8 | 0.00 | 0.00 | 0.00 | 89 | 1012.3 |
| 20260503051406 | 10 | 348 | 1.6 | 4.8 | 0.00 | 0.00 | 0.00 | 89 | 1012.3 |
| 20260503051306 | 10 | 0 | 1.6 | 4.8 | 0.00 | 0.00 | 0.00 | 89 | 1012.3 |
| 20260503051206 | 10 | 294 | 1.6 | 3.2 | 0.00 | 0.00 | 0.00 | 89 | 1012.3 |
| 20260503051103 | 10 | 294 | 1.6 | 3.2 | 0.00 | 0.00 | 0.00 | 89 | 1012.2 |
| 20260503050959 | 10 | 294 | 1.6 | 3.2 | 0.00 | 0.00 | 0.00 | 89 | 1012.2 |
| 20260503050857 | 10 | 294 | 1.6 | 3.2 | 0.00 | 0.00 | 0.00 | 89 | 1012.3 |
| 20260503050657 | 10 | 292 | 1.6 | 6.4 | 0.00 | 0.00 | 0.00 | 89 | 1012.2 |
| 20260503050557 | 10 | 292 | 1.6 | 6.4 | 0.00 | 0.00 | 0.00 | 89 | 1012.3 |
| 20260503050454 | 10 | 292 | 1.6 | 6.4 | 0.00 | 0.00 | 0.00 | 89 | 1012.3 |
| 20260503050354 | 10 | 292 | 1.6 | 6.4 | 0.00 | 0.00 | 0.00 | 89 | 1012.2 |
| 20260503050338 | 10 | 292 | 1.6 | 6.4 | 0.00 | 0.00 | 0.00 | 89 | 1012.2 |
| 20260503050153 | 10 | 292 | 1.6 | 6.4 | 0.00 | 0.00 | 0.00 | 89 | 1012.2 |
| 20260503050051 | 10 | 292 | 1.6 | 6.4 | 0.00 | 0.00 | 0.00 | 89 | 1012.2 |
| 20260503045948 | 10 | 292 | 1.6 | 6.4 | 0.00 | 0.00 | 0.00 | 89 | 1012.2 |
| 20260503045848 | 10 | 355 | 1.6 | 6.4 | 0.00 | 0.00 | 0.00 | 89 | 1012.2 |
| 20260503045748 | 10 | 239 | 1.6 | 3.2 | 0.00 | 0.00 | 0.00 | 89 | 1012.2 |
| 20260503045648 | 10 | 239 | 1.6 | 3.2 | 0.00 | 0.00 | 0.00 | 89 | 1012.2 |
| 20260503045546 | 10 | 273 | 1.6 | 3.2 | 0.00 | 0.00 | 0.00 | 89 | 1012.2 |
| 20260503045443 | 10 | 273 | 1.6 | 3.2 | 0.00 | 0.00 | 0.00 | 89 | 1012.2 |
| 20260503045344 | 10 | 273 | 0.0 | 3.2 | 0.00 | 0.00 | 0.00 | 89 | 1012.2 |
| 20260503045244 | 10 | 287 | 0.0 | 3.2 | 0.00 | 0.00 | 0.00 | 89 | 1012.1 |
| 20260503045141 | 10 | 321 | 0.0 | 3.2 | 0.00 | 0.00 | 0.00 | 89 | 1012.2 |
| 20260503045039 | 10 | 321 | 0.0 | 3.2 | 0.00 | 0.00 | 0.00 | 89 | 1012.2 |
| 20260503044940 | 10 | 321 | 0.0 | 0.0 | 0.00 | 0.00 | 0.00 | 89 | 1012.2 |
| 20260503044838 | 10 | 321 | 0.0 | 0.0 | 0.00 | 0.00 | 0.00 | 89 | 1012.2 |
| 20260503044826 | 10 | 321 | 0.0 | 0.0 | 0.00 | 0.00 | 0.00 | 89 | 1012.2 |
| 20260503044635 | 10 | 321 | 0.0 | 0.0 | 0.00 | 0.00 | 0.00 | 89 | 1012.2 |
| 20260503044533 | 10 | 321 | 0.0 | 0.0 | 0.00 | 0.00 | 0.00 | 89 | 1012.2 |
| 20260503044435 | 10 | 321 | 0.0 | 0.0 | 0.00 | 0.00 | 0.00 | 89 | 1012.2 |
| 20260503044332 | 10 | 321 | 0.0 | 0.0 | 0.00 | 0.00 | 0.00 | 89 | 1012.2 |
| 20260503044129 | 10 | 322 | 0.0 | 3.2 | 0.00 | 0.00 | 0.00 | 89 | 1012.1 |
| 20260503044027 | 10 | 322 | 0.0 | 3.2 | 0.00 | 0.00 | 0.00 | 89 | 1012.1 |
| 20260503043926 | 10 | 322 | 0.0 | 3.2 | 0.00 | 0.00 | 0.00 | 89 | 1012.1 |
| 20260503043826 | 10 | 322 | 0.0 | 3.2 | 0.00 | 0.00 | 0.00 | 89 | 1012.1 |
| 20260503043624 | 10 | 322 | 0.0 | 3.2 | 0.00 | 0.00 | 0.00 | 89 | 1012.1 |
| 20260503043522 | 10 | 322 | 0.0 | 3.2 | 0.00 | 0.00 | 0.00 | 89 | 1012.1 |
| 20260503043422 | 10 | 322 | 0.0 | 3.2 | 0.00 | 0.00 | 0.00 | 89 | 1012.1 |
| 20260503043319 | 10 | 322 | 0.0 | 3.2 | 0.00 | 0.00 | 0.00 | 89 | 1012.0 |
| 20260503043219 | 10 | 336 | 0.0 | 3.2 | 0.00 | 0.00 | 0.00 | 89 | 1012.0 |
| 20260503043117 | 10 | 336 | 0.0 | 3.2 | 0.00 | 0.00 | 0.00 | 89 | 1012.0 |
| 20260503043015 | 10 | 319 | 0.0 | 3.2 | 0.00 | 0.00 | 0.00 | 89 | 1012.0 |
| 20260503042910 | 10 | 319 | 0.0 | 4.8 | 0.00 | 0.00 | 0.00 | 89 | 1012.0 |
| 20260503042810 | 10 | 319 | 0.0 | 4.8 | 0.00 | 0.00 | 0.00 | 89 | 1012.0 |
| 20260503042710 | 10 | 319 | 0.0 | 4.8 | 0.00 | 0.00 | 0.00 | 89 | 1012.0 |
| 20260503042610 | 10 | 313 | 1.6 | 4.8 | 0.00 | 0.00 | 0.00 | 89 | 1012.0 |
| 20260503042509 | 10 | 355 | 1.6 | 4.8 | 0.00 | 0.00 | 0.00 | 89 | 1012.0 |
| 20260503042408 | 10 | 355 | 1.6 | 4.8 | 0.00 | 0.00 | 0.00 | 89 | 1012.0 |
| 20260503042308 | 10 | 355 | 1.6 | 4.8 | 0.00 | 0.00 | 0.00 | 89 | 1012.0 |
| 20260503042208 | 10 | 355 | 1.6 | 11.3 | 0.00 | 0.00 | 0.00 | 89 | 1012.0 |
| 20260503042106 | 10 | 355 | 1.6 | 11.3 | 0.00 | 0.00 | 0.00 | 89 | 1011.9 |
| 20260503042003 | 10 | 346 | 1.6 | 11.3 | 0.00 | 0.00 | 0.00 | 89 | 1012.0 |
| 20260503041901 | 10 | 315 | 1.6 | 11.3 | 0.00 | 0.00 | 0.00 | 89 | 1012.0 |
| 20260503041801 | 10 | 315 | 1.6 | 11.3 | 0.00 | 0.00 | 0.00 | 89 | 1011.9 |
| 20260503041702 | 10 | 268 | 1.6 | 11.3 | 0.00 | 0.00 | 0.00 | 89 | 1011.9 |
| 20260503041600 | 10 | 272 | 1.6 | 11.3 | 0.00 | 0.00 | 0.00 | 89 | 1011.9 |
| 20260503041458 | 10 | 271 | 1.6 | 11.3 | 0.00 | 0.00 | 0.00 | 89 | 1011.9 |
| 20260503041352 | 10 | 346 | 1.6 | 11.3 | 0.00 | 0.00 | 0.00 | 89 | 1011.9 |
| 20260503041252 | 10 | 346 | 3.2 | 11.3 | 0.00 | 0.00 | 0.00 | 89 | 1011.9 |
| 20260503041152 | 10 | 355 | 3.2 | 11.3 | 0.00 | 0.00 | 0.00 | 89 | 1011.9 |
| 20260503041052 | 10 | 355 | 3.2 | 11.3 | 0.00 | 0.00 | 0.00 | 89 | 1011.9 |
| 20260503040952 | 10 | 32 | 3.2 | 11.3 | 0.00 | 0.00 | 0.00 | 89 | 1011.9 |
| 20260503040851 | 10 | 320 | 3.2 | 11.3 | 0.00 | 0.00 | 0.00 | 89 | 1011.9 |
| 20260503040751 | 10 | 303 | 4.8 | 11.3 | 0.00 | 0.00 | 0.00 | 89 | 1011.8 |
| 20260503040651 | 10 | 275 | 4.8 | 12.9 | 0.00 | 0.00 | 0.00 | 89 | 1011.8 |
| 20260503040549 | 10 | 249 | 4.8 | 12.9 | 0.00 | 0.00 | 0.00 | 89 | 1011.8 |
| 20260503040449 | 10 | 249 | 6.4 | 12.9 | 0.00 | 0.00 | 0.00 | 89 | 1011.8 |
| 20260503040347 | 10 | 263 | 6.4 | 12.9 | 0.00 | 0.00 | 0.00 | 89 | 1011.8 |
| 20260503040247 | 10 | 271 | 6.4 | 12.9 | 0.00 | 0.00 | 0.00 | 89 | 1011.8 |
| 20260503040147 | 10 | 280 | 6.4 | 12.9 | 0.00 | 0.00 | 0.00 | 89 | 1011.8 |
| 20260503040047 | 10 | 253 | 6.4 | 12.9 | 0.00 | 0.00 | 0.00 | 89 | 1011.7 |
| 20260503035948 | 10 | 269 | 6.4 | 12.9 | 0.00 | 0.00 | 0.00 | 89 | 1011.8 |
| 20260503035848 | 10 | 268 | 6.4 | 12.9 | 0.00 | 0.00 | 0.00 | 89 | 1011.8 |
| 20260503035748 | 10 | 271 | 6.4 | 12.9 | 0.00 | 0.00 | 0.00 | 89 | 1011.8 |
| 20260503035643 | 10 | 287 | 6.4 | 12.9 | 0.00 | 0.00 | 0.00 | 89 | 1011.8 |
| 20260503035543 | 10 | 261 | 6.4 | 12.9 | 0.00 | 0.00 | 0.00 | 89 | 1011.8 |
| 20260503035442 | 10 | 263 | 6.4 | 12.9 | 0.00 | 0.00 | 0.00 | 89 | 1011.8 |
| 20260503035342 | 10 | 247 | 6.4 | 11.3 | 0.00 | 0.00 | 0.00 | 89 | 1011.8 |
| 20260503035242 | 10 | 297 | 4.8 | 11.3 | 0.00 | 0.00 | 0.00 | 89 | 1011.7 |
| 20260503035142 | 10 | 288 | 4.8 | 11.3 | 0.00 | 0.00 | 0.00 | 89 | 1011.8 |
| 20260503035041 | 10 | 276 | 4.8 | 11.3 | 0.00 | 0.00 | 0.00 | 89 | 1011.8 |
| 20260503034941 | 10 | 275 | 4.8 | 11.3 | 0.00 | 0.00 | 0.00 | 89 | 1011.8 |
| 20260503034841 | 11 | 0 | 4.8 | 11.3 | 0.00 | 0.00 | 0.00 | 89 | 1011.8 |
| 20260503034742 | 11 | 270 | 4.8 | 11.3 | 0.00 | 0.00 | 0.00 | 89 | 1011.8 |
| 20260503034642 | 11 | 309 | 3.2 | 11.3 | 0.00 | 0.00 | 0.00 | 89 | 1011.8 |
| 20260503034542 | 11 | 269 | 3.2 | 11.3 | 0.00 | 0.00 | 0.00 | 89 | 1011.8 |
| 20260503034438 | 11 | 285 | 3.2 | 12.9 | 0.00 | 0.00 | 0.00 | 89 | 1011.8 |
| 20260503034337 | 11 | 271 | 3.2 | 12.9 | 0.00 | 0.00 | 0.00 | 89 | 1011.8 |
| 20260503034237 | 11 | 309 | 3.2 | 12.9 | 0.00 | 0.00 | 0.00 | 89 | 1011.7 |
| 20260503034137 | 11 | 281 | 3.2 | 12.9 | 0.00 | 0.00 | 0.00 | 89 | 1011.7 |
| 20260503034037 | 11 | 240 | 3.2 | 12.9 | 0.00 | 0.00 | 0.00 | 89 | 1011.7 |
| 20260503033937 | 11 | 240 | 3.2 | 12.9 | 0.00 | 0.00 | 0.00 | 89 | 1011.7 |
| 20260503033837 | 11 | 240 | 1.6 | 12.9 | 0.00 | 0.00 | 0.00 | 89 | 1011.7 |
| 20260503033737 | 11 | 240 | 1.6 | 12.9 | 0.00 | 0.00 | 0.00 | 89 | 1011.6 |
| 20260503033638 | 11 | 240 | 3.2 | 12.9 | 0.00 | 0.00 | 0.00 | 89 | 1011.6 |
| 20260503033538 | 11 | 240 | 3.2 | 12.9 | 0.00 | 0.00 | 0.00 | 89 | 1011.6 |
| 20260503033438 | 11 | 231 | 3.2 | 12.9 | 0.00 | 0.00 | 0.00 | 89 | 1011.5 |
| 20260503033338 | 11 | 308 | 3.2 | 12.9 | 0.00 | 0.00 | 0.00 | 89 | 1011.5 |
| 20260503033238 | 11 | 300 | 3.2 | 12.9 | 0.00 | 0.00 | 0.00 | 89 | 1011.5 |
| 20260503033138 | 11 | 267 | 3.2 | 12.9 | 0.00 | 0.00 | 0.00 | 89 | 1011.5 |
| 20260503033037 | 11 | 283 | 3.2 | 12.9 | 0.00 | 0.00 | 0.00 | 89 | 1011.5 |
| 20260503032943 | 11 | 283 | 3.2 | 12.9 | 0.00 | 0.00 | 0.00 | 88 | 1011.4 |
| 20260503032838 | 11 | 283 | 3.2 | 12.9 | 0.00 | 0.00 | 0.00 | 88 | 1011.5 |
| 20260503032739 | 11 | 283 | 4.8 | 12.9 | 0.00 | 0.00 | 0.00 | 88 | 1011.5 |
| 20260503032638 | 11 | 298 | 4.8 | 12.9 | 0.00 | 0.00 | 0.00 | 88 | 1011.4 |
| 20260503032534 | 11 | 266 | 4.8 | 12.9 | 0.00 | 0.00 | 0.00 | 88 | 1011.4 |
| 20260503032434 | 11 | 271 | 4.8 | 12.9 | 0.00 | 0.00 | 0.00 | 88 | 1011.5 |
| 20260503032334 | 11 | 285 | 4.8 | 12.9 | 0.00 | 0.00 | 0.00 | 88 | 1011.5 |
| 20260503032314 | 11 | 272 | 4.8 | 14.5 | 0.00 | 0.00 | 0.00 | 88 | 1011.5 |
| 20260503032134 | 11 | 281 | 4.8 | 14.5 | 0.00 | 0.00 | 0.00 | 88 | 1011.5 |
| 20260503032034 | 11 | 298 | 4.8 | 14.5 | 0.00 | 0.00 | 0.00 | 88 | 1011.6 |
| 20260503031934 | 11 | 280 | 3.2 | 14.5 | 0.00 | 0.00 | 0.00 | 88 | 1011.6 |
| 20260503031834 | 11 | 294 | 4.8 | 14.5 | 0.00 | 0.00 | 0.00 | 88 | 1011.6 |
| 20260503031733 | 11 | 267 | 4.8 | 16.1 | 0.00 | 0.00 | 0.00 | 88 | 1011.5 |
| 20260503031633 | 11 | 258 | 4.8 | 16.1 | 0.00 | 0.00 | 0.00 | 88 | 1011.6 |
| 20260503031533 | 11 | 292 | 4.8 | 16.1 | 0.00 | 0.00 | 0.00 | 88 | 1011.6 |
| 20260503031433 | 11 | 237 | 4.8 | 16.1 | 0.00 | 0.00 | 0.00 | 88 | 1011.6 |
| 20260503031333 | 11 | 252 | 3.2 | 16.1 | 0.00 | 0.00 | 0.00 | 88 | 1011.6 |
| 20260503031313 | 11 | 269 | 3.2 | 16.1 | 0.00 | 0.00 | 0.00 | 88 | 1011.6 |
| 20260503031134 | 11 | 250 | 3.2 | 16.1 | 0.00 | 0.00 | 0.00 | 88 | 1011.6 |
| 20260503031034 | 11 | 250 | 3.2 | 16.1 | 0.00 | 0.00 | 0.00 | 88 | 1011.6 |
| 20260503030933 | 11 | 250 | 4.8 | 16.1 | 0.00 | 0.00 | 0.00 | 88 | 1011.6 |
| 20260503030834 | 11 | 250 | 4.8 | 16.1 | 0.00 | 0.00 | 0.00 | 88 | 1011.6 |
| 20260503030733 | 11 | 300 | 4.8 | 16.1 | 0.00 | 0.00 | 0.00 | 88 | 1011.6 |
| 20260503030629 | 11 | 318 | 4.8 | 16.1 | 0.00 | 0.00 | 0.00 | 88 | 1011.5 |
| 20260503030529 | 11 | 252 | 4.8 | 16.1 | 0.00 | 0.00 | 0.00 | 88 | 1011.5 |
| 20260503030429 | 11 | 273 | 4.8 | 16.1 | 0.00 | 0.00 | 0.00 | 88 | 1011.5 |
| 20260503030329 | 11 | 335 | 4.8 | 16.1 | 0.00 | 0.00 | 0.00 | 88 | 1011.5 |
| 20260503030230 | 11 | 302 | 6.4 | 16.1 | 0.00 | 0.00 | 0.00 | 88 | 1011.5 |
| 20260503030129 | 11 | 271 | 6.4 | 16.1 | 0.00 | 0.00 | 0.00 | 88 | 1011.5 |
| 20260503030030 | 11 | 249 | 6.4 | 16.1 | 0.00 | 0.00 | 0.00 | 88 | 1011.5 |
| 20260503025930 | 11 | 311 | 6.4 | 16.1 | 0.00 | 0.00 | 0.00 | 88 | 1011.4 |
| 20260503025830 | 11 | 259 | 6.4 | 16.1 | 0.00 | 0.00 | 0.00 | 88 | 1011.5 |
| 20260503025814 | 11 | 258 | 6.4 | 14.5 | 0.00 | 0.00 | 0.00 | 88 | 1011.4 |
| 20260503025629 | 11 | 279 | 6.4 | 14.5 | 0.00 | 0.00 | 0.00 | 88 | 1011.5 |
| 20260503025529 | 11 | 266 | 6.4 | 14.5 | 0.00 | 0.00 | 0.00 | 88 | 1011.4 |
| 20260503025429 | 11 | 326 | 6.4 | 14.5 | 0.00 | 0.00 | 0.00 | 88 | 1011.4 |
| 20260503025329 | 11 | 267 | 6.4 | 14.5 | 0.00 | 0.00 | 0.00 | 88 | 1011.4 |
| 20260503025230 | 11 | 281 | 4.8 | 14.5 | 0.00 | 0.00 | 0.00 | 88 | 1011.4 |
| 20260503025130 | 11 | 284 | 4.8 | 14.5 | 0.00 | 0.00 | 0.00 | 88 | 1011.5 |
| 20260503025030 | 11 | 269 | 4.8 | 14.5 | 0.00 | 0.00 | 0.00 | 88 | 1011.5 |
| 20260503024930 | 11 | 227 | 4.8 | 14.5 | 0.00 | 0.00 | 0.00 | 88 | 1011.5 |
| 20260503024829 | 11 | 266 | 4.8 | 14.5 | 0.00 | 0.00 | 0.00 | 88 | 1011.5 |
| 20260503024726 | 11 | 282 | 4.8 | 14.5 | 0.00 | 0.00 | 0.00 | 88 | 1011.5 |
| 20260503024626 | 11 | 315 | 4.8 | 14.5 | 0.00 | 0.00 | 0.00 | 88 | 1011.5 |
| 20260503024525 | 11 | 292 | 4.8 | 14.5 | 0.00 | 0.00 | 0.00 | 88 | 1011.5 |
| 20260503024326 | 11 | 288 | 4.8 | 14.5 | 0.00 | 0.00 | 0.00 | 88 | 1011.4 |
| 20260503024226 | 11 | 297 | 4.8 | 14.5 | 0.00 | 0.00 | 0.00 | 88 | 1011.4 |
| 20260503024126 | 11 | 240 | 4.8 | 14.5 | 0.00 | 0.00 | 0.00 | 88 | 1011.4 |
| 20260503024024 | 11 | 268 | 4.8 | 12.9 | 0.00 | 0.00 | 0.00 | 88 | 1011.4 |
| 20260503023924 | 11 | 268 | 4.8 | 12.9 | 0.00 | 0.00 | 0.00 | 88 | 1011.4 |
| 20260503023824 | 11 | 289 | 4.8 | 16.1 | 0.00 | 0.00 | 0.00 | 88 | 1011.5 |
| 20260503023817 | 11 | 252 | 6.4 | 16.1 | 0.00 | 0.00 | 0.00 | 88 | 1011.4 |
| 20260503023623 | 11 | 269 | 6.4 | 16.1 | 0.00 | 0.00 | 0.00 | 88 | 1011.4 |
| 20260503023523 | 11 | 294 | 6.4 | 16.1 | 0.00 | 0.00 | 0.00 | 88 | 1011.4 |
| 20260503023423 | 11 | 326 | 6.4 | 16.1 | 0.00 | 0.00 | 0.00 | 88 | 1011.4 |
| 20260503023323 | 11 | 287 | 6.4 | 16.1 | 0.00 | 0.00 | 0.00 | 88 | 1011.4 |
| 20260503023223 | 11 | 269 | 6.4 | 16.1 | 0.00 | 0.00 | 0.00 | 88 | 1011.5 |
| 20260503023123 | 11 | 296 | 6.4 | 16.1 | 0.00 | 0.00 | 0.00 | 87 | 1011.5 |
| 20260503023024 | 11 | 292 | 6.4 | 16.1 | 0.00 | 0.00 | 0.00 | 87 | 1011.4 |
| 20260503022921 | 11 | 311 | 6.4 | 19.3 | 0.00 | 0.00 | 0.00 | 87 | 1011.5 |
| 20260503022821 | 11 | 270 | 6.4 | 19.3 | 0.00 | 0.00 | 0.00 | 87 | 1011.4 |
| 20260503022721 | 11 | 225 | 6.4 | 19.3 | 0.00 | 0.00 | 0.00 | 87 | 1011.4 |
| 20260503022621 | 11 | 284 | 8.0 | 19.3 | 0.00 | 0.00 | 0.00 | 87 | 1011.5 |
| 20260503022521 | 11 | 269 | 8.0 | 19.3 | 0.00 | 0.00 | 0.00 | 87 | 1011.4 |
| 20260503022419 | 11 | 249 | 8.0 | 19.3 | 0.00 | 0.00 | 0.00 | 87 | 1011.5 |
| 20260503022313 | 11 | 284 | 8.0 | 19.3 | 0.00 | 0.00 | 0.00 | 87 | 1011.5 |
| 20260503022213 | 11 | 273 | 8.0 | 19.3 | 0.00 | 0.00 | 0.00 | 87 | 1011.4 |
| 20260503022114 | 11 | 312 | 6.4 | 19.3 | 0.00 | 0.00 | 0.00 | 87 | 1011.4 |
| 20260503022013 | 11 | 277 | 6.4 | 19.3 | 0.00 | 0.00 | 0.00 | 87 | 1011.4 |
| 20260503021912 | 11 | 306 | 6.4 | 14.5 | 0.00 | 0.00 | 0.00 | 87 | 1011.4 |
| 20260503021822 | 11 | 248 | 6.4 | 19.3 | 0.00 | 0.00 | 0.00 | 87 | 1011.4 |
| 20260503021812 | 11 | 285 | 4.8 | 19.3 | 0.00 | 0.00 | 0.00 | 87 | 1011.4 |
| 20260503021608 | 11 | 262 | 4.8 | 19.3 | 0.00 | 0.00 | 0.00 | 87 | 1011.4 |
| 20260503021507 | 11 | 272 | 4.8 | 19.3 | 0.00 | 0.00 | 0.00 | 87 | 1011.4 |
| 20260503021406 | 11 | 286 | 4.8 | 19.3 | 0.00 | 0.00 | 0.00 | 87 | 1011.3 |
| 20260503021316 | 11 | 261 | 4.8 | 19.3 | 0.00 | 0.00 | 0.00 | 87 | 1011.4 |
| 20260503021202 | 11 | 303 | 4.8 | 19.3 | 0.00 | 0.00 | 0.00 | 87 | 1011.4 |
| 20260503021102 | 11 | 217 | 4.8 | 19.3 | 0.00 | 0.00 | 0.00 | 87 | 1011.3 |
| 20260503021001 | 11 | 327 | 6.4 | 19.3 | 0.00 | 0.00 | 0.00 | 87 | 1011.3 |
| 20260503020900 | 11 | 249 | 6.4 | 19.3 | 0.00 | 0.00 | 0.00 | 87 | 1011.3 |
| 20260503020755 | 11 | 251 | 6.4 | 19.3 | 0.00 | 0.00 | 0.00 | 87 | 1011.2 |
| 20260503020655 | 11 | 340 | 8.0 | 19.3 | 0.00 | 0.00 | 0.00 | 87 | 1011.3 |
| 20260503020555 | 11 | 307 | 6.4 | 19.3 | 0.00 | 0.00 | 0.00 | 87 | 1011.3 |
| 20260503020455 | 11 | 317 | 6.4 | 19.3 | 0.00 | 0.00 | 0.00 | 87 | 1011.3 |
| 20260503020356 | 11 | 304 | 6.4 | 19.3 | 0.00 | 0.00 | 0.00 | 87 | 1011.4 |
| 20260503020253 | 11 | 227 | 6.4 | 19.3 | 0.00 | 0.00 | 0.00 | 87 | 1011.3 |
| 20260503020153 | 11 | 284 | 4.8 | 19.3 | 0.00 | 0.00 | 0.00 | 87 | 1011.3 |
| 20260503020053 | 11 | 267 | 4.8 | 19.3 | 0.00 | 0.00 | 0.00 | 87 | 1011.3 |
| 20260503015951 | 11 | 58 | 4.8 | 19.3 | 0.00 | 0.00 | 0.00 | 87 | 1011.3 |
| 20260503015848 | 11 | 290 | 4.8 | 17.7 | 0.00 | 0.00 | 0.00 | 87 | 1011.4 |
| 20260503015809 | 11 | 277 | 4.8 | 17.7 | 0.00 | 0.00 | 0.00 | 87 | 1011.3 |
| 20260503015643 | 11 | 333 | 4.8 | 17.7 | 0.00 | 0.00 | 0.00 | 87 | 1011.3 |
| 20260503015543 | 11 | 296 | 4.8 | 17.7 | 0.00 | 0.00 | 0.00 | 87 | 1011.3 |
| 20260503015443 | 11 | 20 | 4.8 | 17.7 | 0.00 | 0.00 | 0.00 | 87 | 1011.4 |
| 20260503015341 | 11 | 24 | 4.8 | 17.7 | 0.00 | 0.00 | 0.00 | 86 | 1011.4 |
| 20260503015305 | 11 | 270 | 4.8 | 17.7 | 0.00 | 0.00 | 0.00 | 86 | 1011.4 |
| 20260503015136 | 11 | 254 | 6.4 | 17.7 | 0.00 | 0.00 | 0.00 | 86 | 1011.3 |
| 20260503015036 | 11 | 341 | 6.4 | 17.7 | 0.00 | 0.00 | 0.00 | 86 | 1011.4 |
| 20260503014936 | 11 | 268 | 6.4 | 17.7 | 0.00 | 0.00 | 0.00 | 86 | 1011.4 |
| 20260503014835 | 11 | 316 | 6.4 | 19.3 | 0.00 | 0.00 | 0.00 | 86 | 1011.4 |
| 20260503014733 | 11 | 264 | 6.4 | 19.3 | 0.00 | 0.00 | 0.00 | 86 | 1011.4 |
| 20260503014633 | 11 | 292 | 8.0 | 19.3 | 0.00 | 0.00 | 0.00 | 86 | 1011.5 |
| 20260503014533 | 11 | 251 | 8.0 | 19.3 | 0.00 | 0.00 | 0.00 | 86 | 1011.5 |
| 20260503014431 | 11 | 355 | 8.0 | 19.3 | 0.00 | 0.00 | 0.00 | 86 | 1011.5 |
| 20260503014329 | 11 | 302 | 8.0 | 19.3 | 0.00 | 0.00 | 0.00 | 86 | 1011.5 |
| 20260503014223 | 11 | 248 | 8.0 | 19.3 | 0.00 | 0.00 | 0.00 | 86 | 1011.5 |
| 20260503014123 | 11 | 300 | 6.4 | 19.3 | 0.00 | 0.00 | 0.00 | 86 | 1011.5 |
| 20260503014023 | 11 | 257 | 6.4 | 19.3 | 0.00 | 0.00 | 0.00 | 86 | 1011.5 |
| 20260503013923 | 11 | 272 | 4.8 | 19.3 | 0.00 | 0.00 | 0.00 | 86 | 1011.5 |
| 20260503013823 | 11 | 327 | 4.8 | 17.7 | 0.00 | 0.00 | 0.00 | 86 | 1011.4 |
| 20260503013719 | 11 | 272 | 4.8 | 16.1 | 0.00 | 0.00 | 0.00 | 86 | 1011.5 |
| 20260503013633 | 11 | 255 | 4.8 | 16.1 | 0.00 | 0.00 | 0.00 | 86 | 1011.5 |
| 20260503013518 | 11 | 250 | 4.8 | 12.9 | 0.00 | 0.00 | 0.00 | 86 | 1011.5 |
| 20260503013418 | 11 | 281 | 3.2 | 12.9 | 0.00 | 0.00 | 0.00 | 86 | 1011.4 |
| 20260503013316 | 11 | 306 | 3.2 | 12.9 | 0.00 | 0.00 | 0.00 | 86 | 1011.5 |
| 20260503013211 | 11 | 314 | 4.8 | 12.9 | 0.00 | 0.00 | 0.00 | 86 | 1011.5 |
| 20260503013111 | 11 | 192 | 4.8 | 12.9 | 0.00 | 0.00 | 0.00 | 86 | 1011.5 |
| 20260503012912 | 11 | 322 | 4.8 | 20.9 | 0.00 | 0.00 | 0.00 | 86 | 1011.5 |
| 20260503012811 | 11 | 262 | 6.4 | 20.9 | 0.00 | 0.00 | 0.00 | 86 | 1011.5 |
| 20260503012707 | 11 | 325 | 6.4 | 20.9 | 0.00 | 0.00 | 0.00 | 86 | 1011.5 |
| 20260503012605 | 11 | 263 | 6.4 | 20.9 | 0.00 | 0.00 | 0.00 | 86 | 1011.5 |
| 20260503012505 | 11 | 274 | 6.4 | 20.9 | 0.00 | 0.00 | 0.00 | 86 | 1011.5 |
| 20260503012405 | 11 | 281 | 8.0 | 20.9 | 0.00 | 0.00 | 0.00 | 86 | 1011.5 |
| 20260503012306 | 11 | 22 | 8.0 | 20.9 | 0.00 | 0.00 | 0.00 | 86 | 1011.5 |
| 20260503012202 | 11 | 290 | 8.0 | 20.9 | 0.00 | 0.00 | 0.00 | 85 | 1011.5 |
| 20260503012059 | 11 | 250 | 8.0 | 24.1 | 0.00 | 0.00 | 0.00 | 85 | 1011.6 |
| 20260503011959 | 11 | 102 | 8.0 | 24.1 | 0.00 | 0.00 | 0.00 | 85 | 1011.6 |
| 20260503011859 | 11 | 12 | 9.7 | 24.1 | 0.00 | 0.00 | 0.00 | 85 | 1011.5 |
| 20260503011759 | 11 | 267 | 9.7 | 24.1 | 0.00 | 0.00 | 0.00 | 85 | 1011.6 |
| 20260503011654 | 11 | 258 | 9.7 | 24.1 | 0.00 | 0.00 | 0.00 | 85 | 1011.6 |
| 20260503011554 | 11 | 315 | 9.7 | 24.1 | 0.00 | 0.00 | 0.00 | 85 | 1011.6 |
| 20260503011453 | 11 | 266 | 9.7 | 24.1 | 0.00 | 0.00 | 0.00 | 85 | 1011.6 |
| 20260503011353 | 11 | 5 | 9.7 | 24.1 | 0.00 | 0.00 | 0.00 | 85 | 1011.6 |
| 20260503011252 | 11 | 295 | 9.7 | 24.1 | 0.00 | 0.00 | 0.00 | 85 | 1011.6 |
| 20260503011147 | 11 | 304 | 9.7 | 22.5 | 0.00 | 0.00 | 0.00 | 85 | 1011.6 |
| 20260503011047 | 12 | 254 | 9.7 | 22.5 | 0.00 | 0.00 | 0.00 | 85 | 1011.7 |
| 20260503010947 | 12 | 262 | 9.7 | 22.5 | 0.00 | 0.00 | 0.00 | 85 | 1011.6 |
| 20260503010847 | 12 | 274 | 9.7 | 17.7 | 0.00 | 0.00 | 0.00 | 85 | 1011.7 |
| 20260503010747 | 12 | 262 | 8.0 | 17.7 | 0.00 | 0.00 | 0.00 | 85 | 1011.7 |
| 20260503010641 | 12 | 255 | 8.0 | 17.7 | 0.00 | 0.00 | 0.00 | 85 | 1011.7 |
| 20260503010541 | 12 | 304 | 8.0 | 16.1 | 0.00 | 0.00 | 0.00 | 85 | 1011.7 |
| 20260503010441 | 12 | 274 | 8.0 | 16.1 | 0.00 | 0.00 | 0.00 | 85 | 1011.8 |
| 20260503010341 | 12 | 304 | 8.0 | 17.7 | 0.00 | 0.00 | 0.00 | 84 | 1011.7 |
| 20260503010241 | 12 | 186 | 8.0 | 17.7 | 0.00 | 0.00 | 0.00 | 85 | 1011.7 |
| 20260503010136 | 12 | 258 | 8.0 | 17.7 | 0.00 | 0.00 | 0.00 | 85 | 1011.8 |
| 20260503010035 | 12 | 337 | 8.0 | 17.7 | 0.00 | 0.00 | 0.00 | 85 | 1011.8 |
| 20260503005936 | 12 | 276 | 8.0 | 17.7 | 0.00 | 0.00 | 0.00 | 84 | 1011.8 |
| 20260503005835 | 12 | 277 | 6.4 | 17.7 | 0.00 | 0.00 | 0.00 | 84 | 1011.7 |
| 20260503005735 | 12 | 323 | 6.4 | 17.7 | 0.00 | 0.00 | 0.00 | 84 | 1011.8 |
| 20260503005657 | 12 | 296 | 6.4 | 17.7 | 0.00 | 0.00 | 0.00 | 84 | 1011.8 |
| 20260503005531 | 12 | 261 | 6.4 | 17.7 | 0.00 | 0.00 | 0.00 | 84 | 1011.8 |
| 20260503005431 | 12 | 292 | 6.4 | 17.7 | 0.00 | 0.00 | 0.00 | 84 | 1011.8 |
| 20260503005331 | 12 | 313 | 6.4 | 16.1 | 0.00 | 0.00 | 0.00 | 84 | 1011.8 |
| 20260503005228 | 12 | 271 | 6.4 | 17.7 | 0.00 | 0.00 | 0.00 | 84 | 1011.9 |
| 20260503005125 | 12 | 355 | 6.4 | 17.7 | 0.00 | 0.00 | 0.00 | 84 | 1011.8 |
| 20260503005025 | 12 | 245 | 6.4 | 17.7 | 0.00 | 0.00 | 0.00 | 84 | 1011.9 |
| 20260503004925 | 12 | 0 | 6.4 | 17.7 | 0.00 | 0.00 | 0.00 | 84 | 1011.9 |
| 20260503004825 | 12 | 319 | 6.4 | 17.7 | 0.00 | 0.00 | 0.00 | 83 | 1011.9 |
| 20260503004723 | 12 | 298 | 6.4 | 17.7 | 0.00 | 0.00 | 0.00 | 83 | 1011.9 |
| 20260503004618 | 12 | 298 | 6.4 | 19.3 | 0.00 | 0.00 | 0.00 | 83 | 1011.9 |
| 20260503004518 | 12 | 286 | 8.0 | 19.3 | 0.00 | 0.00 | 0.00 | 83 | 1011.9 |
| 20260503004417 | 12 | 232 | 8.0 | 22.5 | 0.00 | 0.00 | 0.00 | 83 | 1011.9 |
| 20260503004317 | 12 | 265 | 8.0 | 22.5 | 0.00 | 0.00 | 0.00 | 83 | 1011.9 |
| 20260503004216 | 12 | 312 | 8.0 | 22.5 | 0.00 | 0.00 | 0.00 | 83 | 1011.9 |
| 20260503004138 | 12 | 298 | 8.0 | 22.5 | 0.00 | 0.00 | 0.00 | 83 | 1011.8 |
| 20260503004012 | 12 | 139 | 8.0 | 22.5 | 0.00 | 0.00 | 0.00 | 83 | 1011.9 |
| 20260503003911 | 12 | 338 | 8.0 | 22.5 | 0.00 | 0.00 | 0.00 | 83 | 1011.9 |
| 20260503003811 | 12 | 290 | 8.0 | 22.5 | 0.00 | 0.00 | 0.00 | 83 | 1011.9 |
| 20260503003710 | 12 | 212 | 8.0 | 22.5 | 0.00 | 0.00 | 0.00 | 82 | 1011.9 |
| 20260503003605 | 12 | 284 | 8.0 | 22.5 | 0.00 | 0.00 | 0.00 | 82 | 1011.8 |
| 20260503003506 | 12 | 32 | 8.0 | 22.5 | 0.00 | 0.00 | 0.00 | 82 | 1011.9 |
| 20260503003404 | 12 | 257 | 8.0 | 17.7 | 0.00 | 0.00 | 0.00 | 82 | 1011.9 |
| 20260503003305 | 12 | 279 | 8.0 | 17.7 | 0.00 | 0.00 | 0.00 | 82 | 1011.9 |
| 20260503003204 | 12 | 273 | 8.0 | 17.7 | 0.00 | 0.00 | 0.00 | 82 | 1011.9 |
| 20260503003059 | 12 | 261 | 8.0 | 17.7 | 0.00 | 0.00 | 0.00 | 82 | 1011.9 |
| 20260503002959 | 12 | 286 | 8.0 | 17.7 | 0.00 | 0.00 | 0.00 | 82 | 1011.9 |
| 20260503002859 | 12 | 255 | 8.0 | 17.7 | 0.00 | 0.00 | 0.00 | 82 | 1011.9 |
| 20260503002759 | 13 | 263 | 8.0 | 17.7 | 0.00 | 0.00 | 0.00 | 82 | 1011.9 |
| 20260503002658 | 13 | 277 | 8.0 | 19.3 | 0.00 | 0.00 | 0.00 | 82 | 1011.9 |
| 20260503002553 | 13 | 271 | 8.0 | 19.3 | 0.00 | 0.00 | 0.00 | 82 | 1011.8 |
| 20260503002453 | 13 | 288 | 8.0 | 19.3 | 0.00 | 0.00 | 0.00 | 82 | 1011.8 |
| 20260503002353 | 13 | 322 | 8.0 | 19.3 | 0.00 | 0.00 | 0.00 | 82 | 1011.8 |
| 20260503002253 | 13 | 273 | 8.0 | 19.3 | 0.00 | 0.00 | 0.00 | 82 | 1011.8 |
| 20260503002153 | 13 | 323 | 8.0 | 19.3 | 0.00 | 0.00 | 0.00 | 82 | 1011.8 |
| 20260503002115 | 13 | 276 | 9.7 | 19.3 | 0.00 | 0.00 | 0.00 | 81 | 1011.8 |
| 20260503001947 | 13 | 279 | 8.0 | 19.3 | 0.00 | 0.00 | 0.00 | 81 | 1011.8 |
| 20260503001847 | 13 | 264 | 8.0 | 19.3 | 0.00 | 0.00 | 0.00 | 81 | 1011.8 |
| 20260503001748 | 13 | 288 | 8.0 | 19.3 | 0.00 | 0.00 | 0.00 | 81 | 1011.8 |
| 20260503001646 | 13 | 292 | 8.0 | 17.7 | 0.00 | 0.00 | 0.00 | 81 | 1011.8 |
| 20260503001549 | 13 | 274 | 8.0 | 17.7 | 0.00 | 0.00 | 0.00 | 81 | 1011.9 |
| 20260503001441 | 13 | 292 | 8.0 | 17.7 | 0.00 | 0.00 | 0.00 | 81 | 1011.8 |
| 20260503001341 | 13 | 250 | 6.4 | 20.9 | 0.00 | 0.00 | 0.00 | 81 | 1011.9 |
| 20260503001241 | 13 | 273 | 6.4 | 20.9 | 0.00 | 0.00 | 0.00 | 80 | 1011.8 |
| 20260503001141 | 13 | 266 | 6.4 | 20.9 | 0.00 | 0.00 | 0.00 | 80 | 1011.9 |
| 20260503001037 | 13 | 262 | 6.4 | 20.9 | 0.00 | 0.00 | 0.00 | 80 | 1011.9 |
| 20260503000937 | 13 | 272 | 6.4 | 20.9 | 0.00 | 0.00 | 0.00 | 80 | 1011.8 |
| 20260503000837 | 13 | 269 | 6.4 | 20.9 | 0.00 | 0.00 | 0.00 | 81 | 1011.9 |
| 20260503000737 | 13 | 234 | 6.4 | 20.9 | 0.00 | 0.00 | 0.00 | 81 | 1011.9 |
| 20260503000634 | 13 | 246 | 6.4 | 20.9 | 0.00 | 0.00 | 0.00 | 80 | 1011.9 |
| 20260503000531 | 13 | 276 | 6.4 | 20.9 | 0.00 | 0.00 | 0.00 | 80 | 1011.9 |
| 20260503000431 | 13 | 277 | 6.4 | 20.9 | 0.00 | 0.00 | 0.00 | 80 | 1011.9 |
| 20260503000331 | 13 | 304 | 8.0 | 20.9 | 0.00 | 0.00 | 0.00 | 80 | 1011.9 |
| 20260503000233 | 13 | 235 | 8.0 | 20.9 | 0.00 | 0.00 | 0.00 | 80 | 1011.9 |
| 20260503000129 | 13 | 313 | 8.0 | 20.9 | 0.00 | 0.00 | 0.00 | 80 | 1012.0 |
| 20260503000025 | 13 | 254 | 6.4 | 20.9 | 0.00 | 0.00 | 0.00 | 81 | 1011.9 |
| 20260502235925 | 13 | 294 | 6.4 | 20.9 | 0.00 | 0.00 | 0.00 | 81 | 1012.0 |
| 20260502235825 | 13 | 266 | 8.0 | 20.9 | 0.00 | 0.00 | 0.00 | 81 | 1012.0 |
| 20260502235725 | 13 | 355 | 8.0 | 20.9 | 0.00 | 0.00 | 0.00 | 81 | 1012.0 |
| 20260502235622 | 13 | 319 | 8.0 | 22.5 | 0.00 | 0.00 | 0.00 | 80 | 1012.0 |
| 20260502235517 | 13 | 286 | 8.0 | 22.5 | 0.00 | 0.00 | 0.00 | 80 | 1012.0 |
| 20260502235417 | 13 | 257 | 9.7 | 22.5 | 0.00 | 0.00 | 0.00 | 81 | 1012.0 |
| 20260502235317 | 13 | 274 | 8.0 | 22.5 | 0.00 | 0.00 | 0.00 | 80 | 1012.1 |
| 20260502235217 | 13 | 269 | 9.7 | 22.5 | 0.00 | 0.00 | 0.00 | 80 | 1012.1 |
| 20260502235117 | 13 | 241 | 8.0 | 22.5 | 0.00 | 0.00 | 0.00 | 80 | 1012.1 |
| 20260502235011 | 13 | 261 | 8.0 | 22.5 | 0.00 | 0.00 | 0.00 | 79 | 1012.1 |
| 20260502234911 | 13 | 259 | 8.0 | 22.5 | 0.00 | 0.00 | 0.00 | 79 | 1012.1 |
| 20260502234811 | 13 | 287 | 8.0 | 22.5 | 0.00 | 0.00 | 0.00 | 79 | 1012.1 |
| 20260502234711 | 13 | 298 | 8.0 | 22.5 | 0.00 | 0.00 | 0.00 | 79 | 1012.1 |
| 20260502234610 | 13 | 271 | 6.4 | 20.9 | 0.00 | 0.00 | 0.00 | 79 | 1012.1 |
| 20260502234505 | 14 | 277 | 6.4 | 20.9 | 0.00 | 0.00 | 0.00 | 80 | 1012.2 |
| 20260502234405 | 14 | 277 | 6.4 | 19.3 | 0.00 | 0.00 | 0.00 | 80 | 1012.2 |
| 20260502234305 | 14 | 245 | 6.4 | 17.7 | 0.00 | 0.00 | 0.00 | 80 | 1012.2 |
| 20260502234206 | 14 | 350 | 8.0 | 24.1 | 0.00 | 0.00 | 0.00 | 80 | 1012.2 |
| 20260502234104 | 13 | 215 | 8.0 | 24.1 | 0.00 | 0.00 | 0.00 | 80 | 1012.2 |
| 20260502233959 | 13 | 255 | 8.0 | 24.1 | 0.00 | 0.00 | 0.00 | 80 | 1012.3 |
| 20260502233859 | 13 | 315 | 8.0 | 24.1 | 0.00 | 0.00 | 0.00 | 80 | 1012.3 |
| 20260502233800 | 13 | 325 | 8.0 | 24.1 | 0.00 | 0.00 | 0.00 | 80 | 1012.3 |
| 20260502233659 | 13 | 267 | 8.0 | 24.1 | 0.00 | 0.00 | 0.00 | 80 | 1012.3 |
| 20260502233559 | 13 | 255 | 8.0 | 24.1 | 0.00 | 0.00 | 0.00 | 80 | 1012.3 |
| 20260502233454 | 13 | 287 | 9.7 | 24.1 | 0.00 | 0.00 | 0.00 | 79 | 1012.3 |
| 20260502233353 | 13 | 269 | 9.7 | 24.1 | 0.00 | 0.00 | 0.00 | 79 | 1012.3 |
| 20260502233253 | 13 | 282 | 9.7 | 24.1 | 0.00 | 0.00 | 0.00 | 79 | 1012.3 |
| 20260502233153 | 13 | 273 | 9.7 | 20.9 | 0.00 | 0.00 | 0.00 | 79 | 1012.4 |
| 20260502233053 | 13 | 0 | 9.7 | 20.9 | 0.00 | 0.00 | 0.00 | 79 | 1012.4 |
| 20260502232946 | 14 | 268 | 9.7 | 20.9 | 0.00 | 0.00 | 0.00 | 79 | 1012.3 |
| 20260502232847 | 13 | 248 | 9.7 | 20.9 | 0.00 | 0.00 | 0.00 | 79 | 1012.3 |
| 20260502232748 | 14 | 281 | 9.7 | 22.5 | 0.00 | 0.00 | 0.00 | 79 | 1012.3 |
| 20260502232647 | 14 | 339 | 9.7 | 24.1 | 0.00 | 0.00 | 0.00 | 79 | 1012.3 |
| 20260502232547 | 14 | 284 | 9.7 | 24.1 | 0.00 | 0.00 | 0.00 | 79 | 1012.3 |
| 20260502232441 | 14 | 258 | 9.7 | 24.1 | 0.00 | 0.00 | 0.00 | 79 | 1012.3 |
| 20260502232341 | 14 | 238 | 9.7 | 24.1 | 0.00 | 0.00 | 0.00 | 79 | 1012.4 |
| 20260502232241 | 14 | 280 | 9.7 | 24.1 | 0.00 | 0.00 | 0.00 | 78 | 1012.4 |
| 20260502232141 | 14 | 286 | 9.7 | 24.1 | 0.00 | 0.00 | 0.00 | 79 | 1012.4 |
| 20260502232040 | 14 | 279 | 8.0 | 24.1 | 0.00 | 0.00 | 0.00 | 78 | 1012.4 |
| 20260502231935 | 14 | 5 | 8.0 | 25.7 | 0.00 | 0.00 | 0.00 | 78 | 1012.4 |
| 20260502231835 | 14 | 304 | 8.0 | 25.7 | 0.00 | 0.00 | 0.00 | 79 | 1012.4 |
| 20260502231735 | 14 | 273 | 8.0 | 25.7 | 0.00 | 0.00 | 0.00 | 79 | 1012.5 |
| 20260502231635 | 14 | 273 | 8.0 | 25.7 | 0.00 | 0.00 | 0.00 | 78 | 1012.5 |
| 20260502231535 | 14 | 277 | 8.0 | 25.7 | 0.00 | 0.00 | 0.00 | 79 | 1012.4 |
| 20260502231428 | 14 | 271 | 6.4 | 25.7 | 0.00 | 0.00 | 0.00 | 79 | 1012.4 |
| 20260502231329 | 14 | 298 | 6.4 | 25.7 | 0.00 | 0.00 | 0.00 | 79 | 1012.5 |
| 20260502231230 | 14 | 261 | 8.0 | 25.7 | 0.00 | 0.00 | 0.00 | 79 | 1012.5 |
| 20260502231129 | 14 | 292 | 8.0 | 25.7 | 0.00 | 0.00 | 0.00 | 80 | 1012.5 |
| 20260502231028 | 14 | 269 | 8.0 | 25.7 | 0.00 | 0.00 | 0.00 | 80 | 1012.6 |
| 20260502230923 | 14 | 270 | 8.0 | 25.7 | 0.00 | 0.00 | 0.00 | 80 | 1012.5 |